Time,TemperatureF,DewpointF,PressureIn,WindDirection,WindDirectionDegrees,WindSpeedMPH,WindSpeedGustMPH,Humidity,HourlyPrecipIn,Conditions,Clouds,dailyrainin,SoftwareType,DateUTC
2013-06-08 00:03:00,52.8,45.4,30.17,West,267,0.0,1.0,76,0.00,,,0.00,Wunderground v.1.15,2013-06-08 07:03:00,
2013-06-08 00:04:00,52.8,45.4,30.17,West,267,0.0,1.0,76,0.00,,,0.00,Wunderground v.1.15,2013-06-08 07:04:00,
2013-06-08 00:05:00,52.8,45.4,30.17,West,267,0.0,1.0,76,0.00,,,0.00,Wunderground v.1.15,2013-06-08 07:05:00,
2013-06-08 00:07:00,52.7,45.3,30.17,West,267,0.0,1.0,76,0.00,,,0.00,Wunderground v.1.15,2013-06-08 07:07:00,
2013-06-08 00:09:00,52.7,45.3,30.17,West,267,0.0,1.0,76,0.00,,,0.00,Wunderground v.1.15,2013-06-08 07:09:00,
2013-06-08 00:10:00,52.7,45.3,30.17,West,267,0.0,0.0,76,0.00,,,0.00,Wunderground v.1.15,2013-06-08 07:10:00,
2013-06-08 00:12:00,52.7,45.3,30.17,West,267,0.0,0.0,76,0.00,,,0.00,Wunderground v.1.15,2013-06-08 07:12:00,
2013-06-08 00:14:00,52.5,45.2,30.17,West,267,0.0,0.0,76,0.00,,,0.00,Wunderground v.1.15,2013-06-08 07:14:00,
2013-06-08 00:15:00,52.5,45.5,30.17,West,267,0.0,0.0,77,0.00,,,0.00,Wunderground v.1.15,2013-06-08 07:15:00,
2013-06-08 00:18:00,52.5,45.5,30.16,West,267,0.0,0.0,77,0.00,,,0.00,Wunderground v.1.15,2013-06-08 07:18:00,
2013-06-08 00:21:00,52.4,45.7,30.16,West,267,0.0,0.0,78,0.00,,,0.00,Wunderground v.1.15,2013-06-08 07:21:00,
2013-06-08 00:22:00,52.4,45.7,30.16,West,267,0.0,0.0,78,0.00,,,0.00,Wunderground v.1.15,2013-06-08 07:22:00,
2013-06-08 00:24:00,52.2,45.2,30.16,West,267,0.0,0.0,77,0.00,,,0.00,Wunderground v.1.15,2013-06-08 07:24:00,
2013-06-08 00:27:00,52.2,45.5,30.16,West,267,0.0,0.0,78,0.00,,,0.00,Wunderground v.1.15,2013-06-08 07:27:00,
2013-06-08 00:28:00,52.2,45.5,30.16,West,267,0.0,0.0,78,0.00,,,0.00,Wunderground v.1.15,2013-06-08 07:28:00,
2013-06-08 00:29:00,52.2,45.5,30.16,West,267,0.0,0.0,78,0.00,,,0.00,Wunderground v.1.15,2013-06-08 07:29:00,
2013-06-08 00:30:00,52.1,45.4,30.16,West,267,0.0,0.0,78,0.00,,,0.00,Wunderground v.1.15,2013-06-08 07:30:00,
2013-06-08 00:34:00,52.1,45.4,30.16,West,267,0.0,0.0,78,0.00,,,0.00,Wunderground v.1.15,2013-06-08 07:34:00,
2013-06-08 00:35:00,52.1,45.4,30.16,West,267,0.0,0.0,78,0.00,,,0.00,Wunderground v.1.15,2013-06-08 07:35:00,
2013-06-08 00:37:00,51.9,45.3,30.16,West,267,0.0,0.0,78,0.00,,,0.00,Wunderground v.1.15,2013-06-08 07:37:00,
2013-06-08 00:39:00,51.9,45.6,30.16,West,267,0.0,0.0,79,0.00,,,0.00,Wunderground v.1.15,2013-06-08 07:39:00,
2013-06-08 00:42:00,51.9,45.6,30.16,West,267,0.0,0.0,79,0.00,,,0.00,Wunderground v.1.15,2013-06-08 07:42:00,
2013-06-08 00:43:00,51.9,45.6,30.16,West,267,0.0,0.0,79,0.00,,,0.00,Wunderground v.1.15,2013-06-08 07:43:00,
2013-06-08 00:44:00,51.9,45.6,30.16,West,267,0.0,0.0,79,0.00,,,0.00,Wunderground v.1.15,2013-06-08 07:44:00,
2013-06-08 00:49:00,51.8,45.5,30.16,West,267,0.0,0.0,79,0.00,,,0.00,Wunderground v.1.15,2013-06-08 07:49:00,
2013-06-08 00:50:00,51.8,45.5,30.16,West,267,0.0,0.0,79,0.00,,,0.00,Wunderground v.1.15,2013-06-08 07:50:00,
2013-06-08 00:51:00,51.8,45.5,30.16,West,267,0.0,0.0,79,0.00,,,0.00,Wunderground v.1.15,2013-06-08 07:51:00,
2013-06-08 00:52:00,51.8,45.5,30.16,West,267,0.0,0.0,79,0.00,,,0.00,Wunderground v.1.15,2013-06-08 07:52:00,
2013-06-08 00:55:00,51.6,45.3,30.16,West,267,0.0,0.0,79,0.00,,,0.00,Wunderground v.1.15,2013-06-08 07:55:00,
2013-06-08 00:57:00,51.6,45.3,30.16,West,267,0.0,0.0,79,0.00,,,0.00,Wunderground v.1.15,2013-06-08 07:57:00,
2013-06-08 00:58:00,51.6,45.3,30.16,West,267,0.0,0.0,79,0.00,,,0.00,Wunderground v.1.15,2013-06-08 07:58:00,
2013-06-08 00:59:00,51.6,45.3,30.16,West,267,0.0,0.0,79,0.00,,,0.00,Wunderground v.1.15,2013-06-08 07:59:00,
2013-06-08 01:00:00,51.6,45.3,30.16,West,267,0.0,0.0,79,0.00,,,0.00,Wunderground v.1.15,2013-06-08 08:00:00,
2013-06-08 01:02:00,51.6,45.6,30.16,West,267,0.0,0.0,80,0.00,,,0.00,Wunderground v.1.15,2013-06-08 08:02:00,
2013-06-08 01:05:00,51.5,45.2,30.16,West,267,0.0,0.0,79,0.00,,,0.00,Wunderground v.1.15,2013-06-08 08:05:00,
2013-06-08 01:06:00,51.5,45.5,30.16,West,267,0.0,0.0,80,0.00,,,0.00,Wunderground v.1.15,2013-06-08 08:06:00,
2013-06-08 01:08:00,51.5,45.5,30.16,West,267,0.0,0.0,80,0.00,,,0.00,Wunderground v.1.15,2013-06-08 08:08:00,
2013-06-08 01:12:00,51.3,45.3,30.16,West,267,0.0,0.0,80,0.00,,,0.00,Wunderground v.1.15,2013-06-08 08:12:00,
2013-06-08 01:13:00,51.3,45.3,30.16,West,267,0.0,0.0,80,0.00,,,0.00,Wunderground v.1.15,2013-06-08 08:13:00,
2013-06-08 01:14:00,51.3,45.3,30.16,West,267,0.0,0.0,80,0.00,,,0.00,Wunderground v.1.15,2013-06-08 08:14:00,
2013-06-08 01:15:00,51.2,45.2,30.16,West,267,0.0,0.0,80,0.00,,,0.00,Wunderground v.1.15,2013-06-08 08:15:00,
2013-06-08 01:18:00,51.2,45.2,30.17,West,267,0.0,0.0,80,0.00,,,0.00,Wunderground v.1.15,2013-06-08 08:18:00,
2013-06-08 01:21:00,51.2,45.6,30.17,West,267,0.0,0.0,81,0.00,,,0.00,Wunderground v.1.15,2013-06-08 08:21:00,
2013-06-08 01:22:00,51.2,45.6,30.17,West,267,0.0,0.0,81,0.00,,,0.00,Wunderground v.1.15,2013-06-08 08:22:00,
2013-06-08 01:24:00,51.0,45.4,30.17,West,267,0.0,0.0,81,0.00,,,0.00,Wunderground v.1.15,2013-06-08 08:24:00,
2013-06-08 01:27:00,50.9,45.3,30.17,West,267,0.0,0.0,81,0.00,,,0.00,Wunderground v.1.15,2013-06-08 08:27:00,
2013-06-08 01:28:00,50.9,45.3,30.17,West,267,0.0,0.0,81,0.00,,,0.00,Wunderground v.1.15,2013-06-08 08:28:00,
2013-06-08 01:30:00,50.9,45.3,30.17,West,267,0.0,0.0,81,0.00,,,0.00,Wunderground v.1.15,2013-06-08 08:30:00,
2013-06-08 01:31:00,50.7,45.1,30.17,West,267,0.0,0.0,81,0.00,,,0.00,Wunderground v.1.15,2013-06-08 08:31:00,
2013-06-08 01:33:00,50.7,45.1,30.17,West,267,0.0,0.0,81,0.00,,,0.00,Wunderground v.1.15,2013-06-08 08:33:00,
2013-06-08 01:36:00,50.7,45.1,30.17,West,267,0.0,0.0,81,0.00,,,0.00,Wunderground v.1.15,2013-06-08 08:36:00,
2013-06-08 01:37:00,50.7,45.1,30.17,West,267,0.0,0.0,81,0.00,,,0.00,Wunderground v.1.15,2013-06-08 08:37:00,
2013-06-08 01:38:00,50.6,45.0,30.17,West,267,0.0,0.0,81,0.00,,,0.00,Wunderground v.1.15,2013-06-08 08:38:00,
2013-06-08 01:39:00,50.6,45.0,30.17,West,267,0.0,0.0,81,0.00,,,0.00,Wunderground v.1.15,2013-06-08 08:39:00,
2013-06-08 01:42:00,50.6,45.3,30.17,West,267,0.0,0.0,82,0.00,,,0.00,Wunderground v.1.15,2013-06-08 08:42:00,
2013-06-08 01:43:00,50.4,45.1,30.17,West,267,0.0,0.0,82,0.00,,,0.00,Wunderground v.1.15,2013-06-08 08:43:00,
2013-06-08 01:45:00,50.4,45.1,30.17,West,267,0.0,0.0,82,0.00,,,0.00,Wunderground v.1.15,2013-06-08 08:45:00,
2013-06-08 01:47:00,50.4,45.4,30.17,West,267,0.0,0.0,83,0.00,,,0.00,Wunderground v.1.15,2013-06-08 08:47:00,
2013-06-08 01:49:00,50.3,45.3,30.17,West,267,0.0,0.0,83,0.00,,,0.00,Wunderground v.1.15,2013-06-08 08:49:00,
2013-06-08 01:52:00,50.3,45.3,30.17,West,267,0.0,0.0,83,0.00,,,0.00,Wunderground v.1.15,2013-06-08 08:52:00,
2013-06-08 01:54:00,50.3,45.3,30.17,West,265,0.0,0.0,83,0.00,,,0.00,Wunderground v.1.15,2013-06-08 08:54:00,
2013-06-08 01:55:00,50.3,45.3,30.17,West,265,0.0,0.0,83,0.00,,,0.00,Wunderground v.1.15,2013-06-08 08:55:00,
2013-06-08 01:56:00,50.3,45.3,30.17,West,265,0.0,0.0,83,0.00,,,0.00,Wunderground v.1.15,2013-06-08 08:56:00,
2013-06-08 01:58:00,50.3,45.0,30.17,West,265,0.0,0.0,82,0.00,,,0.00,Wunderground v.1.15,2013-06-08 08:58:00,
2013-06-08 02:01:00,50.3,45.0,30.17,West,264,1.0,1.0,82,0.00,,,0.00,Wunderground v.1.15,2013-06-08 09:01:00,
2013-06-08 02:02:00,50.4,45.1,30.18,West,265,0.0,1.0,82,0.00,,,0.00,Wunderground v.1.15,2013-06-08 09:02:00,
2013-06-08 02:03:00,50.4,45.1,30.18,West,265,0.0,1.0,82,0.00,,,0.00,Wunderground v.1.15,2013-06-08 09:03:00,
2013-06-08 02:04:00,50.4,45.1,30.18,West,265,0.0,1.0,82,0.00,,,0.00,Wunderground v.1.15,2013-06-08 09:04:00,
2013-06-08 02:07:00,50.6,45.3,30.18,West,265,0.0,1.0,82,0.00,,,0.00,Wunderground v.1.15,2013-06-08 09:07:00,
2013-06-08 02:08:00,50.6,45.3,30.18,West,265,0.0,1.0,82,0.00,,,0.00,Wunderground v.1.15,2013-06-08 09:08:00,
2013-06-08 02:10:00,50.6,45.0,30.18,West,265,0.0,0.0,81,0.00,,,0.00,Wunderground v.1.15,2013-06-08 09:10:00,
2013-06-08 02:11:00,50.7,45.1,30.18,West,265,0.0,0.0,81,0.00,,,0.00,Wunderground v.1.15,2013-06-08 09:11:00,
2013-06-08 02:12:00,50.7,45.1,30.18,West,265,0.0,0.0,81,0.00,,,0.00,Wunderground v.1.15,2013-06-08 09:12:00,
2013-06-08 02:14:00,50.7,45.1,30.18,West,265,0.0,0.0,81,0.00,,,0.00,Wunderground v.1.15,2013-06-08 09:14:00,
2013-06-08 02:16:00,50.9,45.3,30.18,West,265,0.0,0.0,81,0.00,,,0.00,Wunderground v.1.15,2013-06-08 09:16:00,
2013-06-08 02:17:00,50.9,45.3,30.18,West,265,0.0,0.0,81,0.00,,,0.00,Wunderground v.1.15,2013-06-08 09:17:00,
2013-06-08 02:19:00,50.9,45.3,30.17,West,265,0.0,0.0,81,0.00,,,0.00,Wunderground v.1.15,2013-06-08 09:19:00,
2013-06-08 02:21:00,51.0,45.4,30.17,West,265,0.0,0.0,81,0.00,,,0.00,Wunderground v.1.15,2013-06-08 09:21:00,
2013-06-08 02:22:00,51.0,45.4,30.17,West,265,0.0,0.0,81,0.00,,,0.00,Wunderground v.1.15,2013-06-08 09:22:00,
2013-06-08 02:23:00,51.0,45.4,30.17,West,265,0.0,0.0,81,0.00,,,0.00,Wunderground v.1.15,2013-06-08 09:23:00,
2013-06-08 02:24:00,51.0,45.4,30.17,West,265,0.0,0.0,81,0.00,,,0.00,Wunderground v.1.15,2013-06-08 09:24:00,
2013-06-08 02:27:00,51.2,45.6,30.17,West,265,0.0,0.0,81,0.00,,,0.00,Wunderground v.1.15,2013-06-08 09:27:00,
2013-06-08 02:28:00,51.2,45.6,30.17,West,265,0.0,0.0,81,0.00,,,0.00,Wunderground v.1.15,2013-06-08 09:28:00,
2013-06-08 02:30:00,51.2,45.6,30.17,West,265,0.0,0.0,81,0.00,,,0.00,Wunderground v.1.15,2013-06-08 09:30:00,
2013-06-08 02:33:00,51.2,45.6,30.17,West,265,0.0,0.0,81,0.00,,,0.00,Wunderground v.1.15,2013-06-08 09:33:00,
2013-06-08 02:34:00,51.2,45.6,30.17,West,265,0.0,0.0,81,0.00,,,0.00,Wunderground v.1.15,2013-06-08 09:34:00,
2013-06-08 02:36:00,51.3,45.7,30.17,West,265,0.0,0.0,81,0.00,,,0.00,Wunderground v.1.15,2013-06-08 09:36:00,
2013-06-08 02:38:00,51.3,45.7,30.17,West,265,0.0,0.0,81,0.00,,,0.00,Wunderground v.1.15,2013-06-08 09:38:00,
2013-06-08 02:40:00,51.3,45.7,30.17,West,265,0.0,0.0,81,0.00,,,0.00,Wunderground v.1.15,2013-06-08 09:40:00,
2013-06-08 02:43:00,51.3,45.7,30.17,West,265,0.0,0.0,81,0.00,,,0.00,Wunderground v.1.15,2013-06-08 09:43:00,
2013-06-08 02:44:00,51.3,45.3,30.17,West,265,0.0,0.0,80,0.00,,,0.00,Wunderground v.1.15,2013-06-08 09:44:00,
2013-06-08 02:46:00,51.3,45.3,30.17,West,265,0.0,0.0,80,0.00,,,0.00,Wunderground v.1.15,2013-06-08 09:46:00,
2013-06-08 02:49:00,51.3,45.3,30.17,West,265,0.0,0.0,80,0.00,,,0.00,Wunderground v.1.15,2013-06-08 09:49:00,
2013-06-08 02:51:00,51.3,45.7,30.17,West,265,0.0,0.0,81,0.00,,,0.00,Wunderground v.1.15,2013-06-08 09:51:00,
2013-06-08 02:54:00,51.3,45.7,30.17,West,265,0.0,0.0,81,0.00,,,0.00,Wunderground v.1.15,2013-06-08 09:54:00,
2013-06-08 02:58:00,51.3,45.7,30.17,West,265,0.0,0.0,81,0.00,,,0.00,Wunderground v.1.15,2013-06-08 09:58:00,
2013-06-08 02:59:00,51.3,45.7,30.17,West,265,0.0,0.0,81,0.00,,,0.00,Wunderground v.1.15,2013-06-08 09:59:00,
2013-06-08 03:00:00,51.3,45.7,30.17,West,265,0.0,0.0,81,0.00,,,0.00,Wunderground v.1.15,2013-06-08 10:00:00,
2013-06-08 03:03:00,51.3,45.7,30.18,West,265,0.0,0.0,81,0.00,,,0.00,Wunderground v.1.15,2013-06-08 10:03:00,
2013-06-08 03:05:00,51.5,45.9,30.18,West,265,0.0,0.0,81,0.00,,,0.00,Wunderground v.1.15,2013-06-08 10:05:00,
2013-06-08 03:07:00,51.3,45.7,30.18,West,265,0.0,0.0,81,0.00,,,0.00,Wunderground v.1.15,2013-06-08 10:07:00,
2013-06-08 03:09:00,51.3,45.7,30.18,West,265,0.0,0.0,81,0.00,,,0.00,Wunderground v.1.15,2013-06-08 10:09:00,
2013-06-08 03:10:00,51.3,45.7,30.18,West,265,0.0,0.0,81,0.00,,,0.00,Wunderground v.1.15,2013-06-08 10:10:00,
2013-06-08 03:12:00,51.3,45.7,30.18,West,265,0.0,0.0,81,0.00,,,0.00,Wunderground v.1.15,2013-06-08 10:12:00,
2013-06-08 03:13:00,51.3,45.7,30.18,West,265,0.0,0.0,81,0.00,,,0.00,Wunderground v.1.15,2013-06-08 10:13:00,
2013-06-08 03:15:00,51.5,46.2,30.18,West,265,0.0,0.0,82,0.00,,,0.00,Wunderground v.1.15,2013-06-08 10:15:00,
2013-06-08 03:17:00,51.3,45.7,30.18,West,265,0.0,0.0,81,0.00,,,0.00,Wunderground v.1.15,2013-06-08 10:17:00,
2013-06-08 03:18:00,51.3,45.7,30.18,West,265,0.0,0.0,81,0.00,,,0.00,Wunderground v.1.15,2013-06-08 10:18:00,
2013-06-08 03:21:00,51.5,45.9,30.18,West,265,0.0,0.0,81,0.00,,,0.00,Wunderground v.1.15,2013-06-08 10:21:00,
2013-06-08 03:22:00,51.5,46.2,30.18,West,265,0.0,0.0,82,0.00,,,0.00,Wunderground v.1.15,2013-06-08 10:22:00,
2013-06-08 03:23:00,51.5,46.2,30.18,West,265,0.0,0.0,82,0.00,,,0.00,Wunderground v.1.15,2013-06-08 10:23:00,
2013-06-08 03:24:00,51.5,46.2,30.18,West,265,0.0,0.0,82,0.00,,,0.00,Wunderground v.1.15,2013-06-08 10:24:00,
2013-06-08 03:27:00,51.3,45.3,30.18,West,265,0.0,0.0,80,0.00,,,0.00,Wunderground v.1.15,2013-06-08 10:27:00,
2013-06-08 03:28:00,51.3,45.3,30.18,West,265,0.0,0.0,80,0.00,,,0.00,Wunderground v.1.15,2013-06-08 10:28:00,
2013-06-08 03:29:00,51.3,45.3,30.18,West,265,0.0,0.0,80,0.00,,,0.00,Wunderground v.1.15,2013-06-08 10:29:00,
2013-06-08 03:32:00,51.3,45.3,30.18,West,265,0.0,0.0,80,0.00,,,0.00,Wunderground v.1.15,2013-06-08 10:32:00,
2013-06-08 03:34:00,51.5,45.5,30.18,West,265,0.0,0.0,80,0.00,,,0.00,Wunderground v.1.15,2013-06-08 10:34:00,
2013-06-08 03:37:00,51.5,45.9,30.18,West,265,0.0,0.0,81,0.00,,,0.00,Wunderground v.1.15,2013-06-08 10:37:00,
2013-06-08 03:38:00,51.5,45.9,30.18,West,265,0.0,0.0,81,0.00,,,0.00,Wunderground v.1.15,2013-06-08 10:38:00,
2013-06-08 03:39:00,51.5,45.9,30.18,West,265,0.0,0.0,81,0.00,,,0.00,Wunderground v.1.15,2013-06-08 10:39:00,
2013-06-08 03:40:00,51.5,45.9,30.18,West,265,0.0,0.0,81,0.00,,,0.00,Wunderground v.1.15,2013-06-08 10:40:00,
2013-06-08 03:43:00,51.5,45.9,30.18,West,265,0.0,0.0,81,0.00,,,0.00,Wunderground v.1.15,2013-06-08 10:43:00,
2013-06-08 03:45:00,51.5,45.9,30.18,West,265,0.0,0.0,81,0.00,,,0.00,Wunderground v.1.15,2013-06-08 10:45:00,
2013-06-08 03:47:00,51.5,45.9,30.18,West,265,0.0,0.0,81,0.00,,,0.00,Wunderground v.1.15,2013-06-08 10:47:00,
2013-06-08 03:49:00,51.5,45.9,30.18,West,265,0.0,0.0,81,0.00,,,0.00,Wunderground v.1.15,2013-06-08 10:49:00,
2013-06-08 03:50:00,51.5,45.9,30.18,West,265,0.0,0.0,81,0.00,,,0.00,Wunderground v.1.15,2013-06-08 10:50:00,
2013-06-08 03:52:00,51.5,45.9,30.18,West,265,0.0,0.0,81,0.00,,,0.00,Wunderground v.1.15,2013-06-08 10:52:00,
2013-06-08 03:54:00,51.5,45.9,30.18,West,265,0.0,0.0,81,0.00,,,0.00,Wunderground v.1.15,2013-06-08 10:54:00,
2013-06-08 03:55:00,51.5,45.9,30.18,West,265,0.0,0.0,81,0.00,,,0.00,Wunderground v.1.15,2013-06-08 10:55:00,
2013-06-08 03:56:00,51.5,45.9,30.18,West,265,0.0,0.0,81,0.00,,,0.00,Wunderground v.1.15,2013-06-08 10:56:00,
2013-06-08 03:57:00,51.5,45.9,30.18,West,265,0.0,0.0,81,0.00,,,0.00,Wunderground v.1.15,2013-06-08 10:57:00,
2013-06-08 03:59:00,51.5,45.9,30.18,West,265,0.0,0.0,81,0.00,,,0.00,Wunderground v.1.15,2013-06-08 10:59:00,
2013-06-08 04:00:00,51.5,45.5,30.18,West,265,0.0,0.0,80,0.00,,,0.00,Wunderground v.1.15,2013-06-08 11:00:00,
2013-06-08 04:01:00,51.3,45.3,30.18,West,265,0.0,0.0,80,0.00,,,0.00,Wunderground v.1.15,2013-06-08 11:01:00,
2013-06-08 04:02:00,51.3,45.3,30.17,West,265,0.0,0.0,80,0.00,,,0.00,Wunderground v.1.15,2013-06-08 11:02:00,
2013-06-08 04:03:00,51.3,45.3,30.17,West,265,0.0,0.0,80,0.00,,,0.00,Wunderground v.1.15,2013-06-08 11:03:00,
2013-06-08 04:04:00,51.3,45.3,30.17,West,265,0.0,0.0,80,0.00,,,0.00,Wunderground v.1.15,2013-06-08 11:04:00,
2013-06-08 04:05:00,51.3,45.3,30.17,West,265,0.0,0.0,80,0.00,,,0.00,Wunderground v.1.15,2013-06-08 11:05:00,
2013-06-08 04:07:00,51.3,45.7,30.17,West,265,0.0,0.0,81,0.00,,,0.00,Wunderground v.1.15,2013-06-08 11:07:00,
2013-06-08 04:08:00,51.3,45.7,30.17,West,265,0.0,0.0,81,0.00,,,0.00,Wunderground v.1.15,2013-06-08 11:08:00,
2013-06-08 04:09:00,51.3,45.7,30.17,West,265,0.0,0.0,81,0.00,,,0.00,Wunderground v.1.15,2013-06-08 11:09:00,
2013-06-08 04:11:00,51.3,45.7,30.17,West,265,0.0,0.0,81,0.00,,,0.00,Wunderground v.1.15,2013-06-08 11:11:00,
2013-06-08 04:13:00,51.3,45.7,30.17,West,265,0.0,0.0,81,0.00,,,0.00,Wunderground v.1.15,2013-06-08 11:13:00,
2013-06-08 04:14:00,51.3,45.7,30.17,West,265,0.0,0.0,81,0.00,,,0.00,Wunderground v.1.15,2013-06-08 11:14:00,
2013-06-08 04:17:00,51.3,45.7,30.17,West,265,0.0,0.0,81,0.00,,,0.00,Wunderground v.1.15,2013-06-08 11:17:00,
2013-06-08 04:18:00,51.3,45.7,30.17,West,265,0.0,0.0,81,0.00,,,0.00,Wunderground v.1.15,2013-06-08 11:18:00,
2013-06-08 04:19:00,51.3,45.7,30.17,West,265,0.0,0.0,81,0.00,,,0.00,Wunderground v.1.15,2013-06-08 11:19:00,
2013-06-08 04:20:00,51.2,45.6,30.17,West,265,0.0,0.0,81,0.00,,,0.00,Wunderground v.1.15,2013-06-08 11:20:00,
2013-06-08 04:22:00,51.2,45.6,30.17,West,265,0.0,0.0,81,0.00,,,0.00,Wunderground v.1.15,2013-06-08 11:22:00,
2013-06-08 04:23:00,51.2,45.6,30.17,West,265,0.0,0.0,81,0.00,,,0.00,Wunderground v.1.15,2013-06-08 11:23:00,
2013-06-08 04:25:00,51.2,45.6,30.17,West,265,0.0,0.0,81,0.00,,,0.00,Wunderground v.1.15,2013-06-08 11:25:00,
2013-06-08 04:27:00,51.0,45.0,30.17,West,265,0.0,1.0,80,0.00,,,0.00,Wunderground v.1.15,2013-06-08 11:27:00,
2013-06-08 04:29:00,51.0,45.4,30.17,West,265,0.0,1.0,81,0.00,,,0.00,Wunderground v.1.15,2013-06-08 11:29:00,
2013-06-08 04:30:00,51.0,45.4,30.17,West,265,0.0,0.0,81,0.00,,,0.00,Wunderground v.1.15,2013-06-08 11:30:00,
2013-06-08 04:31:00,51.0,45.4,30.17,West,265,0.0,0.0,81,0.00,,,0.00,Wunderground v.1.15,2013-06-08 11:31:00,
2013-06-08 04:32:00,51.0,45.4,30.18,West,265,0.0,0.0,81,0.00,,,0.00,Wunderground v.1.15,2013-06-08 11:32:00,
2013-06-08 04:34:00,51.0,45.4,30.18,West,265,0.0,0.0,81,0.00,,,0.00,Wunderground v.1.15,2013-06-08 11:34:00,
2013-06-08 04:35:00,51.0,45.4,30.18,West,265,0.0,0.0,81,0.00,,,0.00,Wunderground v.1.15,2013-06-08 11:35:00,
2013-06-08 04:36:00,51.0,45.4,30.18,West,265,0.0,0.0,81,0.00,,,0.00,Wunderground v.1.15,2013-06-08 11:36:00,
2013-06-08 04:37:00,51.0,45.0,30.18,West,265,0.0,0.0,80,0.00,,,0.00,Wunderground v.1.15,2013-06-08 11:37:00,
2013-06-08 04:40:00,51.0,45.0,30.18,West,265,0.0,0.0,80,0.00,,,0.00,Wunderground v.1.15,2013-06-08 11:40:00,
2013-06-08 04:41:00,51.0,45.0,30.18,West,265,0.0,0.0,80,0.00,,,0.00,Wunderground v.1.15,2013-06-08 11:41:00,
2013-06-08 04:42:00,51.0,45.0,30.18,West,265,0.0,0.0,80,0.00,,,0.00,Wunderground v.1.15,2013-06-08 11:42:00,
2013-06-08 04:43:00,51.0,44.7,30.18,West,261,1.0,1.0,79,0.00,,,0.00,Wunderground v.1.15,2013-06-08 11:43:00,
2013-06-08 04:46:00,51.0,45.0,30.18,West,261,0.0,1.0,80,0.00,,,0.00,Wunderground v.1.15,2013-06-08 11:46:00,
2013-06-08 04:47:00,51.0,45.0,30.18,West,261,0.0,1.0,80,0.00,,,0.00,Wunderground v.1.15,2013-06-08 11:47:00,
2013-06-08 04:48:00,51.2,45.2,30.18,WSW,257,0.0,1.0,80,0.00,,,0.00,Wunderground v.1.15,2013-06-08 11:48:00,
2013-06-08 04:51:00,51.2,44.9,30.18,WSW,257,0.0,1.0,79,0.00,,,0.00,Wunderground v.1.15,2013-06-08 11:51:00,
2013-06-08 04:52:00,51.2,44.9,30.18,WSW,257,0.0,1.0,79,0.00,,,0.00,Wunderground v.1.15,2013-06-08 11:52:00,
2013-06-08 04:53:00,51.2,44.9,30.18,WSW,257,0.0,1.0,79,0.00,,,0.00,Wunderground v.1.15,2013-06-08 11:53:00,
2013-06-08 04:57:00,51.2,45.2,30.18,WSW,257,0.0,1.0,80,0.00,,,0.00,Wunderground v.1.15,2013-06-08 11:57:00,
2013-06-08 04:58:00,51.2,45.2,30.18,WSW,257,0.0,1.0,80,0.00,,,0.00,Wunderground v.1.15,2013-06-08 11:58:00,
2013-06-08 05:00:00,51.2,44.9,30.18,WSW,257,0.0,0.0,79,0.00,,,0.00,Wunderground v.1.15,2013-06-08 12:00:00,
2013-06-08 05:02:00,51.2,44.9,30.19,WSW,257,0.0,0.0,79,0.00,,,0.00,Wunderground v.1.15,2013-06-08 12:02:00,
2013-06-08 05:03:00,51.2,44.9,30.19,WSW,257,0.0,0.0,79,0.00,,,0.00,Wunderground v.1.15,2013-06-08 12:03:00,
2013-06-08 05:04:00,51.2,44.9,30.19,WSW,257,0.0,0.0,79,0.00,,,0.00,Wunderground v.1.15,2013-06-08 12:04:00,
2013-06-08 05:05:00,51.2,44.9,30.19,WSW,257,0.0,0.0,79,0.00,,,0.00,Wunderground v.1.15,2013-06-08 12:05:00,
2013-06-08 05:08:00,51.2,45.2,30.19,WSW,257,0.0,0.0,80,0.00,,,0.00,Wunderground v.1.15,2013-06-08 12:08:00,
2013-06-08 05:10:00,51.3,45.3,30.19,WSW,257,0.0,0.0,80,0.00,,,0.00,Wunderground v.1.15,2013-06-08 12:10:00,
2013-06-08 05:13:00,51.3,45.3,30.19,WSW,257,0.0,0.0,80,0.00,,,0.00,Wunderground v.1.15,2013-06-08 12:13:00,
2013-06-08 05:14:00,51.3,45.3,30.19,WSW,257,0.0,0.0,80,0.00,,,0.00,Wunderground v.1.15,2013-06-08 12:14:00,
2013-06-08 05:15:00,51.3,45.3,30.19,WSW,257,0.0,0.0,80,0.00,,,0.00,Wunderground v.1.15,2013-06-08 12:15:00,
2013-06-08 05:16:00,51.3,45.3,30.19,WSW,257,0.0,0.0,80,0.00,,,0.00,Wunderground v.1.15,2013-06-08 12:16:00,
2013-06-08 05:17:00,51.3,45.3,30.19,WSW,257,0.0,0.0,80,0.00,,,0.00,Wunderground v.1.15,2013-06-08 12:17:00,
2013-06-08 05:18:00,51.3,45.0,30.19,WSW,257,0.0,0.0,79,0.00,,,0.00,Wunderground v.1.15,2013-06-08 12:18:00,
2013-06-08 05:20:00,51.3,45.3,30.19,WSW,257,0.0,0.0,80,0.00,,,0.00,Wunderground v.1.15,2013-06-08 12:20:00,
2013-06-08 05:22:00,51.3,45.7,30.19,WSW,257,0.0,0.0,81,0.00,,,0.00,Wunderground v.1.15,2013-06-08 12:22:00,
2013-06-08 05:24:00,51.2,45.2,30.19,WSW,257,0.0,0.0,80,0.00,,,0.00,Wunderground v.1.15,2013-06-08 12:24:00,
2013-06-08 05:25:00,51.2,45.2,30.19,WSW,257,0.0,0.0,80,0.00,,,0.00,Wunderground v.1.15,2013-06-08 12:25:00,
2013-06-08 05:26:00,51.2,45.2,30.19,WSW,257,0.0,0.0,80,0.00,,,0.00,Wunderground v.1.15,2013-06-08 12:26:00,
2013-06-08 05:27:00,51.2,45.2,30.19,WSW,257,0.0,0.0,80,0.00,,,0.00,Wunderground v.1.15,2013-06-08 12:27:00,
2013-06-08 05:29:00,51.2,45.2,30.19,WSW,257,0.0,0.0,80,0.00,,,0.00,Wunderground v.1.15,2013-06-08 12:29:00,
2013-06-08 05:31:00,51.2,45.2,30.19,WSW,257,0.0,0.0,80,0.00,,,0.00,Wunderground v.1.15,2013-06-08 12:31:00,
2013-06-08 05:32:00,51.2,45.6,30.19,WSW,257,0.0,0.0,81,0.00,,,0.00,Wunderground v.1.15,2013-06-08 12:32:00,
2013-06-08 05:33:00,51.2,45.6,30.19,WSW,257,0.0,0.0,81,0.00,,,0.00,Wunderground v.1.15,2013-06-08 12:33:00,
2013-06-08 05:35:00,51.2,45.2,30.19,WSW,257,0.0,0.0,80,0.00,,,0.00,Wunderground v.1.15,2013-06-08 12:35:00,
2013-06-08 05:36:00,51.2,45.2,30.19,WSW,257,0.0,0.0,80,0.00,,,0.00,Wunderground v.1.15,2013-06-08 12:36:00,
2013-06-08 05:38:00,51.2,45.2,30.19,WSW,257,0.0,0.0,80,0.00,,,0.00,Wunderground v.1.15,2013-06-08 12:38:00,
2013-06-08 05:40:00,51.0,45.0,30.19,WSW,257,0.0,0.0,80,0.00,,,0.00,Wunderground v.1.15,2013-06-08 12:40:00,
2013-06-08 05:43:00,51.0,45.4,30.19,WSW,257,0.0,0.0,81,0.00,,,0.00,Wunderground v.1.15,2013-06-08 12:43:00,
2013-06-08 05:44:00,51.0,45.4,30.19,WSW,257,0.0,0.0,81,0.00,,,0.00,Wunderground v.1.15,2013-06-08 12:44:00,
2013-06-08 05:45:00,51.0,45.0,30.19,WSW,257,0.0,0.0,80,0.00,,,0.00,Wunderground v.1.15,2013-06-08 12:45:00,
2013-06-08 05:46:00,51.0,45.4,30.19,WSW,257,0.0,0.0,81,0.00,,,0.00,Wunderground v.1.15,2013-06-08 12:46:00,
2013-06-08 05:48:00,51.0,45.4,30.19,WSW,257,0.0,0.0,81,0.00,,,0.00,Wunderground v.1.15,2013-06-08 12:48:00,
2013-06-08 05:49:00,51.0,45.4,30.19,WSW,257,0.0,0.0,81,0.00,,,0.00,Wunderground v.1.15,2013-06-08 12:49:00,
2013-06-08 05:50:00,51.0,45.4,30.19,WSW,257,0.0,0.0,81,0.00,,,0.00,Wunderground v.1.15,2013-06-08 12:50:00,
2013-06-08 05:52:00,51.0,45.4,30.19,WSW,257,0.0,0.0,81,0.00,,,0.00,Wunderground v.1.15,2013-06-08 12:52:00,
2013-06-08 05:53:00,51.0,45.4,30.19,WSW,257,0.0,0.0,81,0.00,,,0.00,Wunderground v.1.15,2013-06-08 12:53:00,
2013-06-08 05:55:00,51.0,45.4,30.19,WSW,257,0.0,0.0,81,0.00,,,0.00,Wunderground v.1.15,2013-06-08 12:55:00,
2013-06-08 05:57:00,51.0,45.4,30.19,WSW,257,0.0,0.0,81,0.00,,,0.00,Wunderground v.1.15,2013-06-08 12:57:00,
2013-06-08 05:58:00,51.0,45.4,30.19,WSW,257,0.0,0.0,81,0.00,,,0.00,Wunderground v.1.15,2013-06-08 12:58:00,
2013-06-08 06:00:00,51.0,45.4,30.19,WSW,257,0.0,0.0,81,0.00,,,0.00,Wunderground v.1.15,2013-06-08 13:00:00,
2013-06-08 06:01:00,51.0,45.4,30.19,WSW,257,0.0,0.0,81,0.00,,,0.00,Wunderground v.1.15,2013-06-08 13:01:00,
2013-06-08 06:02:00,51.0,45.4,30.18,WSW,257,0.0,0.0,81,0.00,,,0.00,Wunderground v.1.15,2013-06-08 13:02:00,
2013-06-08 06:04:00,51.0,45.4,30.18,WSW,257,0.0,0.0,81,0.00,,,0.00,Wunderground v.1.15,2013-06-08 13:04:00,
2013-06-08 06:06:00,51.0,45.4,30.18,WSW,257,0.0,0.0,81,0.00,,,0.00,Wunderground v.1.15,2013-06-08 13:06:00,
2013-06-08 06:07:00,51.0,45.4,30.18,WSW,257,0.0,0.0,81,0.00,,,0.00,Wunderground v.1.15,2013-06-08 13:07:00,
2013-06-08 06:09:00,51.0,45.4,30.18,WSW,257,0.0,0.0,81,0.00,,,0.00,Wunderground v.1.15,2013-06-08 13:09:00,
2013-06-08 06:12:00,51.0,45.4,30.18,WSW,257,0.0,0.0,81,0.00,,,0.00,Wunderground v.1.15,2013-06-08 13:12:00,
2013-06-08 06:13:00,51.0,45.4,30.18,WSW,257,0.0,0.0,81,0.00,,,0.00,Wunderground v.1.15,2013-06-08 13:13:00,
2013-06-08 06:14:00,51.0,45.4,30.18,WSW,257,0.0,0.0,81,0.00,,,0.00,Wunderground v.1.15,2013-06-08 13:14:00,
2013-06-08 06:18:00,50.9,45.3,30.18,WSW,257,0.0,0.0,81,0.00,,,0.00,Wunderground v.1.15,2013-06-08 13:18:00,
2013-06-08 06:20:00,50.9,45.3,30.18,WSW,257,0.0,0.0,81,0.00,,,0.00,Wunderground v.1.15,2013-06-08 13:20:00,
2013-06-08 06:23:00,50.9,45.3,30.18,WSW,257,0.0,0.0,81,0.00,,,0.00,Wunderground v.1.15,2013-06-08 13:23:00,
2013-06-08 06:24:00,50.9,45.3,30.18,WSW,257,0.0,0.0,81,0.00,,,0.00,Wunderground v.1.15,2013-06-08 13:24:00,
2013-06-08 06:25:00,50.9,45.3,30.18,WSW,257,0.0,0.0,81,0.00,,,0.00,Wunderground v.1.15,2013-06-08 13:25:00,
2013-06-08 06:29:00,50.7,45.1,30.18,WSW,257,0.0,0.0,81,0.00,,,0.00,Wunderground v.1.15,2013-06-08 13:29:00,
2013-06-08 06:30:00,50.7,45.4,30.18,WSW,257,0.0,0.0,82,0.00,,,0.00,Wunderground v.1.15,2013-06-08 13:30:00,
2013-06-08 06:31:00,50.7,45.4,30.18,WSW,257,0.0,0.0,82,0.00,,,0.00,Wunderground v.1.15,2013-06-08 13:31:00,
2013-06-08 06:34:00,50.6,45.6,30.18,WSW,257,0.0,0.0,83,0.00,,,0.00,Wunderground v.1.15,2013-06-08 13:34:00,
2013-06-08 06:35:00,50.6,45.6,30.18,WSW,257,0.0,0.0,83,0.00,,,0.00,Wunderground v.1.15,2013-06-08 13:35:00,
2013-06-08 06:36:00,50.6,45.6,30.18,WSW,257,0.0,0.0,83,0.00,,,0.00,Wunderground v.1.15,2013-06-08 13:36:00,
2013-06-08 06:37:00,50.6,45.6,30.18,WSW,257,0.0,0.0,83,0.00,,,0.00,Wunderground v.1.15,2013-06-08 13:37:00,
2013-06-08 06:38:00,50.6,45.9,30.18,WSW,257,0.0,0.0,84,0.00,,,0.00,Wunderground v.1.15,2013-06-08 13:38:00,
2013-06-08 06:40:00,50.4,45.7,30.18,WSW,257,0.0,0.0,84,0.00,,,0.00,Wunderground v.1.15,2013-06-08 13:40:00,
2013-06-08 06:42:00,50.4,45.7,30.18,WSW,257,0.0,0.0,84,0.00,,,0.00,Wunderground v.1.15,2013-06-08 13:42:00,
2013-06-08 06:43:00,50.4,45.7,30.18,WSW,257,0.0,0.0,84,0.00,,,0.00,Wunderground v.1.15,2013-06-08 13:43:00,
2013-06-08 06:45:00,50.4,45.7,30.18,WSW,257,0.0,0.0,84,0.00,,,0.00,Wunderground v.1.15,2013-06-08 13:45:00,
2013-06-08 06:46:00,50.4,45.7,30.18,WSW,257,0.0,0.0,84,0.00,,,0.00,Wunderground v.1.15,2013-06-08 13:46:00,
2013-06-08 06:47:00,50.6,45.9,30.18,WSW,257,0.0,0.0,84,0.00,,,0.00,Wunderground v.1.15,2013-06-08 13:47:00,
2013-06-08 06:48:00,50.6,45.9,30.18,WSW,257,0.0,0.0,84,0.00,,,0.00,Wunderground v.1.15,2013-06-08 13:48:00,
2013-06-08 06:51:00,50.6,46.3,30.18,WSW,257,0.0,0.0,85,0.00,,,0.00,Wunderground v.1.15,2013-06-08 13:51:00,
2013-06-08 06:53:00,50.6,45.9,30.18,WSW,257,0.0,0.0,84,0.00,,,0.00,Wunderground v.1.15,2013-06-08 13:53:00,
2013-06-08 06:57:00,50.6,45.6,30.18,WSW,257,0.0,0.0,83,0.00,,,0.00,Wunderground v.1.15,2013-06-08 13:57:00,
2013-06-08 06:58:00,50.6,45.6,30.18,WSW,257,0.0,0.0,83,0.00,,,0.00,Wunderground v.1.15,2013-06-08 13:58:00,
2013-06-08 07:02:00,50.7,45.7,30.18,WSW,257,0.0,0.0,83,0.00,,,0.00,Wunderground v.1.15,2013-06-08 14:02:00,
2013-06-08 07:03:00,50.7,45.7,30.18,WSW,257,0.0,0.0,83,0.00,,,0.00,Wunderground v.1.15,2013-06-08 14:03:00,
2013-06-08 07:04:00,50.7,45.7,30.18,WSW,257,0.0,0.0,83,0.00,,,0.00,Wunderground v.1.15,2013-06-08 14:04:00,
2013-06-08 07:07:00,50.9,46.2,30.18,WSW,257,0.0,0.0,84,0.00,,,0.00,Wunderground v.1.15,2013-06-08 14:07:00,
2013-06-08 07:09:00,50.9,46.2,30.18,WSW,257,0.0,0.0,84,0.00,,,0.00,Wunderground v.1.15,2013-06-08 14:09:00,
2013-06-08 07:12:00,51.0,45.4,30.18,WSW,257,0.0,0.0,81,0.00,,,0.00,Wunderground v.1.15,2013-06-08 14:12:00,
2013-06-08 07:13:00,51.0,45.4,30.18,WSW,257,0.0,0.0,81,0.00,,,0.00,Wunderground v.1.15,2013-06-08 14:13:00,
2013-06-08 07:14:00,51.2,45.6,30.18,WSW,257,0.0,0.0,81,0.00,,,0.00,Wunderground v.1.15,2013-06-08 14:14:00,
2013-06-08 07:15:00,51.2,45.6,30.18,WSW,257,0.0,0.0,81,0.00,,,0.00,Wunderground v.1.15,2013-06-08 14:15:00,
2013-06-08 07:17:00,51.5,46.2,30.18,WSW,257,0.0,0.0,82,0.00,,,0.00,Wunderground v.1.15,2013-06-08 14:17:00,
2013-06-08 07:18:00,51.5,45.9,30.18,WSW,257,0.0,0.0,81,0.00,,,0.00,Wunderground v.1.15,2013-06-08 14:18:00,
2013-06-08 07:19:00,51.5,45.9,30.18,WSW,257,0.0,0.0,81,0.00,,,0.00,Wunderground v.1.15,2013-06-08 14:19:00,
2013-06-08 07:20:00,51.5,45.9,30.18,WSW,257,0.0,0.0,81,0.00,,,0.00,Wunderground v.1.15,2013-06-08 14:20:00,
2013-06-08 07:23:00,51.8,46.2,30.18,WSW,257,0.0,0.0,81,0.00,,,0.00,Wunderground v.1.15,2013-06-08 14:23:00,
2013-06-08 07:24:00,51.9,46.6,30.18,WSW,257,0.0,0.0,82,0.00,,,0.00,Wunderground v.1.15,2013-06-08 14:24:00,
2013-06-08 07:25:00,51.9,46.3,30.18,WSW,257,0.0,0.0,81,0.00,,,0.00,Wunderground v.1.15,2013-06-08 14:25:00,
2013-06-08 07:28:00,51.9,45.6,30.18,WSW,257,0.0,0.0,79,0.00,,,0.00,Wunderground v.1.15,2013-06-08 14:28:00,
2013-06-08 07:29:00,52.1,45.8,30.18,WSW,257,0.0,0.0,79,0.00,,,0.00,Wunderground v.1.15,2013-06-08 14:29:00,
2013-06-08 07:30:00,52.1,45.8,30.18,WSW,257,0.0,0.0,79,0.00,,,0.00,Wunderground v.1.15,2013-06-08 14:30:00,
2013-06-08 07:32:00,52.1,45.8,30.18,WSW,257,0.0,0.0,79,0.00,,,0.00,Wunderground v.1.15,2013-06-08 14:32:00,
2013-06-08 07:34:00,52.2,45.9,30.18,WSW,257,0.0,0.0,79,0.00,,,0.00,Wunderground v.1.15,2013-06-08 14:34:00,
2013-06-08 07:35:00,52.2,45.9,30.18,WSW,257,0.0,0.0,79,0.00,,,0.00,Wunderground v.1.15,2013-06-08 14:35:00,
2013-06-08 07:38:00,52.4,46.4,30.18,WSW,257,0.0,0.0,80,0.00,,,0.00,Wunderground v.1.15,2013-06-08 14:38:00,
2013-06-08 07:41:00,52.5,46.2,30.18,WSW,257,0.0,0.0,79,0.00,,,0.00,Wunderground v.1.15,2013-06-08 14:41:00,
2013-06-08 07:42:00,52.5,46.2,30.18,WSW,257,0.0,0.0,79,0.00,,,0.00,Wunderground v.1.15,2013-06-08 14:42:00,
2013-06-08 07:43:00,52.5,46.2,30.18,WSW,257,0.0,0.0,79,0.00,,,0.00,Wunderground v.1.15,2013-06-08 14:43:00,
2013-06-08 07:44:00,52.7,46.4,30.18,WSW,257,0.0,0.0,79,0.00,,,0.00,Wunderground v.1.15,2013-06-08 14:44:00,
2013-06-08 07:46:00,52.7,46.0,30.18,WSW,257,0.0,0.0,78,0.00,,,0.00,Wunderground v.1.15,2013-06-08 14:46:00,
2013-06-08 07:48:00,52.7,45.7,30.17,WSW,257,0.0,0.0,77,0.00,,,0.00,Wunderground v.1.15,2013-06-08 14:48:00,
2013-06-08 07:49:00,52.8,46.1,30.17,WSW,257,0.0,0.0,78,0.00,,,0.00,Wunderground v.1.15,2013-06-08 14:49:00,
2013-06-08 07:51:00,53.0,46.7,30.17,WSW,257,0.0,0.0,79,0.00,,,0.00,Wunderground v.1.15,2013-06-08 14:51:00,
2013-06-08 07:53:00,53.0,46.0,30.17,WSW,254,1.0,1.0,77,0.00,,,0.00,Wunderground v.1.15,2013-06-08 14:53:00,
2013-06-08 07:55:00,53.0,45.6,30.17,WSW,254,1.0,1.0,76,0.00,,,0.00,Wunderground v.1.15,2013-06-08 14:55:00,
2013-06-08 07:57:00,53.1,45.7,30.17,WSW,254,0.0,1.0,76,0.00,,,0.00,Wunderground v.1.15,2013-06-08 14:57:00,
2013-06-08 07:59:00,53.1,46.1,30.17,WSW,254,0.0,1.0,77,0.00,,,0.00,Wunderground v.1.15,2013-06-08 14:59:00,
2013-06-08 08:00:00,53.3,46.6,30.17,WSW,254,0.0,0.0,78,0.00,,,0.00,Wunderground v.1.15,2013-06-08 15:00:00,
2013-06-08 08:02:00,53.3,46.6,30.17,NNE,28,2.0,2.0,78,0.00,,,0.00,Wunderground v.1.15,2013-06-08 15:02:00,
2013-06-08 08:03:00,53.3,46.6,30.17,NNE,26,0.0,2.0,78,0.00,,,0.00,Wunderground v.1.15,2013-06-08 15:03:00,
2013-06-08 08:05:00,53.4,46.4,30.17,NNE,26,0.0,2.0,77,0.00,,,0.00,Wunderground v.1.15,2013-06-08 15:05:00,
2013-06-08 08:06:00,53.4,46.4,30.17,NNE,26,0.0,2.0,77,0.00,,,0.00,Wunderground v.1.15,2013-06-08 15:06:00,
2013-06-08 08:08:00,53.6,46.6,30.17,NNE,26,0.0,2.0,77,0.00,,,0.00,Wunderground v.1.15,2013-06-08 15:08:00,
2013-06-08 08:09:00,53.6,46.9,30.17,NNE,26,0.0,2.0,78,0.00,,,0.00,Wunderground v.1.15,2013-06-08 15:09:00,
2013-06-08 08:11:00,53.7,46.7,30.17,NNE,26,0.0,0.0,77,0.00,,,0.00,Wunderground v.1.15,2013-06-08 15:11:00,
2013-06-08 08:13:00,53.7,47.0,30.17,NNE,26,0.0,0.0,78,0.00,,,0.00,Wunderground v.1.15,2013-06-08 15:13:00,
2013-06-08 08:14:00,53.7,46.3,30.17,NNE,26,0.0,0.0,76,0.00,,,0.00,Wunderground v.1.15,2013-06-08 15:14:00,
2013-06-08 08:16:00,53.8,46.4,30.17,NNE,26,1.0,1.0,76,0.00,,,0.00,Wunderground v.1.15,2013-06-08 15:16:00,
2013-06-08 08:18:00,53.8,46.8,30.17,NNE,26,0.0,1.0,77,0.00,,,0.00,Wunderground v.1.15,2013-06-08 15:18:00,
2013-06-08 08:19:00,54.0,47.0,30.17,NNE,26,0.0,1.0,77,0.00,,,0.00,Wunderground v.1.15,2013-06-08 15:19:00,
2013-06-08 08:21:00,54.0,46.6,30.17,NNE,26,0.0,0.0,76,0.00,,,0.00,Wunderground v.1.15,2013-06-08 15:21:00,
2013-06-08 08:23:00,54.1,46.7,30.17,NNE,26,0.0,0.0,76,0.00,,,0.00,Wunderground v.1.15,2013-06-08 15:23:00,
2013-06-08 08:24:00,54.1,47.0,30.17,NNE,26,0.0,0.0,77,0.00,,,0.00,Wunderground v.1.15,2013-06-08 15:24:00,
2013-06-08 08:27:00,54.1,46.7,30.17,West,270,0.0,1.0,76,0.00,,,0.00,Wunderground v.1.15,2013-06-08 15:27:00,
2013-06-08 08:29:00,54.1,45.3,30.17,NNW,336,0.0,0.0,72,0.00,,,0.00,Wunderground v.1.15,2013-06-08 15:29:00,
2013-06-08 08:30:00,54.1,45.3,30.17,NNW,332,1.0,1.0,72,0.00,,,0.00,Wunderground v.1.15,2013-06-08 15:30:00,
2013-06-08 08:32:00,54.3,46.5,30.17,NNW,337,0.0,1.0,75,0.00,,,0.00,Wunderground v.1.15,2013-06-08 15:32:00,
2013-06-08 08:33:00,54.3,45.8,30.17,NNW,337,0.0,1.0,73,0.00,,,0.00,Wunderground v.1.15,2013-06-08 15:33:00,
2013-06-08 08:35:00,54.3,45.5,30.17,NNW,337,0.0,1.0,72,0.00,,,0.00,Wunderground v.1.15,2013-06-08 15:35:00,
2013-06-08 08:36:00,54.3,45.8,30.17,NNW,337,0.0,1.0,73,0.00,,,0.00,Wunderground v.1.15,2013-06-08 15:36:00,
2013-06-08 08:37:00,54.4,46.6,30.17,NNW,337,0.0,1.0,75,0.00,,,0.00,Wunderground v.1.15,2013-06-08 15:37:00,
2013-06-08 08:38:00,54.4,46.3,30.17,NNW,337,0.0,1.0,74,0.00,,,0.00,Wunderground v.1.15,2013-06-08 15:38:00,
2013-06-08 08:40:00,54.4,46.6,30.17,North,11,0.0,0.0,75,0.00,,,0.00,Wunderground v.1.15,2013-06-08 15:40:00,
2013-06-08 08:41:00,54.6,46.8,30.17,North,11,0.0,0.0,75,0.00,,,0.00,Wunderground v.1.15,2013-06-08 15:41:00,
2013-06-08 08:42:00,54.6,46.8,30.17,North,11,0.0,0.0,75,0.00,,,0.00,Wunderground v.1.15,2013-06-08 15:42:00,
2013-06-08 08:45:00,54.7,46.9,30.17,North,11,0.0,2.0,75,0.00,,,0.00,Wunderground v.1.15,2013-06-08 15:45:00,
2013-06-08 08:46:00,54.7,46.9,30.17,North,11,0.0,2.0,75,0.00,,,0.00,Wunderground v.1.15,2013-06-08 15:46:00,
2013-06-08 08:48:00,54.7,45.8,30.17,West,274,0.0,2.0,72,0.00,,,0.00,Wunderground v.1.15,2013-06-08 15:48:00,
2013-06-08 08:51:00,54.9,46.0,30.17,West,273,0.0,0.0,72,0.00,,,0.00,Wunderground v.1.15,2013-06-08 15:51:00,
2013-06-08 08:52:00,54.9,46.4,30.17,West,273,0.0,0.0,73,0.00,,,0.00,Wunderground v.1.15,2013-06-08 15:52:00,
2013-06-08 08:53:00,54.9,46.4,30.17,West,273,0.0,0.0,73,0.00,,,0.00,Wunderground v.1.15,2013-06-08 15:53:00,
2013-06-08 08:57:00,55.0,46.1,30.17,West,273,0.0,1.0,72,0.00,,,0.00,Wunderground v.1.15,2013-06-08 15:57:00,
2013-06-08 08:58:00,55.0,45.8,30.17,West,272,0.0,1.0,71,0.00,,,0.00,Wunderground v.1.15,2013-06-08 15:58:00,
2013-06-08 09:03:00,55.5,47.7,30.17,West,272,1.0,1.0,75,0.00,,,0.00,Wunderground v.1.15,2013-06-08 16:03:00,
2013-06-08 09:04:00,55.5,47.7,30.17,NNE,16,1.0,1.0,75,0.00,,,0.00,Wunderground v.1.15,2013-06-08 16:04:00,
2013-06-08 09:08:00,55.8,45.8,30.17,WNW,300,0.0,1.0,69,0.00,,,0.00,Wunderground v.1.15,2013-06-08 16:08:00,
2013-06-08 09:09:00,55.8,45.8,30.17,WNW,300,0.0,1.0,69,0.00,,,0.00,Wunderground v.1.15,2013-06-08 16:09:00,
2013-06-08 09:10:00,55.9,45.9,30.17,WNW,288,0.0,0.0,69,0.00,,,0.00,Wunderground v.1.15,2013-06-08 16:10:00,
2013-06-08 09:13:00,56.1,45.7,30.17,WSW,248,0.0,2.0,68,0.00,,,0.00,Wunderground v.1.15,2013-06-08 16:13:00,
2013-06-08 09:14:00,56.1,45.7,30.17,WSW,248,1.0,2.0,68,0.00,,,0.00,Wunderground v.1.15,2013-06-08 16:14:00,
2013-06-08 09:17:00,56.2,46.2,30.17,WSW,248,0.0,2.0,69,0.00,,,0.00,Wunderground v.1.15,2013-06-08 16:17:00,
2013-06-08 09:19:00,56.2,46.2,30.17,WSW,248,0.0,2.0,69,0.00,,,0.00,Wunderground v.1.15,2013-06-08 16:19:00,
2013-06-08 09:20:00,56.4,46.4,30.17,WSW,250,1.0,1.0,69,0.00,,,0.00,Wunderground v.1.15,2013-06-08 16:20:00,
2013-06-08 09:22:00,56.4,45.6,30.17,WSW,250,1.0,1.0,67,0.00,,,0.00,Wunderground v.1.15,2013-06-08 16:22:00,
2013-06-08 09:24:00,56.5,46.1,30.17,WSW,249,0.0,2.0,68,0.00,,,0.00,Wunderground v.1.15,2013-06-08 16:24:00,
2013-06-08 09:25:00,56.5,46.1,30.17,WSW,249,0.0,2.0,68,0.00,,,0.00,Wunderground v.1.15,2013-06-08 16:25:00,
2013-06-08 09:26:00,56.5,45.7,30.17,WSW,240,0.0,4.0,67,0.00,,,0.00,Wunderground v.1.15,2013-06-08 16:26:00,
2013-06-08 09:28:00,56.7,46.3,30.17,WSW,240,0.0,4.0,68,0.00,,,0.00,Wunderground v.1.15,2013-06-08 16:28:00,
2013-06-08 09:29:00,56.7,46.3,30.17,WSW,240,0.0,0.0,68,0.00,,,0.00,Wunderground v.1.15,2013-06-08 16:29:00,
2013-06-08 09:30:00,56.7,46.3,30.17,WSW,240,0.0,0.0,68,0.00,,,0.00,Wunderground v.1.15,2013-06-08 16:30:00,
2013-06-08 09:32:00,56.8,46.3,30.17,WSW,240,0.0,0.0,68,0.00,,,0.00,Wunderground v.1.15,2013-06-08 16:32:00,
2013-06-08 09:34:00,57.0,46.9,30.17,SW,227,1.0,2.0,69,0.00,,,0.00,Wunderground v.1.15,2013-06-08 16:34:00,
2013-06-08 09:35:00,57.1,46.6,30.17,SW,229,0.0,2.0,68,0.00,,,0.00,Wunderground v.1.15,2013-06-08 16:35:00,
2013-06-08 09:36:00,57.2,47.1,30.17,SW,229,0.0,2.0,69,0.00,,,0.00,Wunderground v.1.15,2013-06-08 16:36:00,
2013-06-08 09:37:00,57.2,47.1,30.17,SW,230,1.0,2.0,69,0.00,,,0.00,Wunderground v.1.15,2013-06-08 16:37:00,
2013-06-08 09:40:00,57.4,46.5,30.17,SW,232,0.0,0.0,67,0.00,,,0.00,Wunderground v.1.15,2013-06-08 16:40:00,
2013-06-08 09:42:00,57.5,46.6,30.17,WSW,252,2.0,2.0,67,0.00,,,0.00,Wunderground v.1.15,2013-06-08 16:42:00,
2013-06-08 09:43:00,57.5,46.6,30.17,WSW,252,0.0,2.0,67,0.00,,,0.00,Wunderground v.1.15,2013-06-08 16:43:00,
2013-06-08 09:45:00,57.5,46.6,30.17,WSW,252,0.0,2.0,67,0.00,,,0.00,Wunderground v.1.15,2013-06-08 16:45:00,
2013-06-08 09:46:00,57.5,46.6,30.17,WSW,252,1.0,2.0,67,0.00,,,0.00,Wunderground v.1.15,2013-06-08 16:46:00,
2013-06-08 09:47:00,57.7,46.8,30.17,WSW,252,0.0,2.0,67,0.00,,,0.00,Wunderground v.1.15,2013-06-08 16:47:00,
2013-06-08 09:49:00,57.7,47.2,30.17,WSW,252,0.0,0.0,68,0.00,,,0.00,Wunderground v.1.15,2013-06-08 16:49:00,
2013-06-08 09:50:00,57.8,47.3,30.17,WSW,257,1.0,1.0,68,0.00,,,0.00,Wunderground v.1.15,2013-06-08 16:50:00,
2013-06-08 09:52:00,57.8,46.9,30.17,WSW,257,2.0,2.0,67,0.00,,,0.00,Wunderground v.1.15,2013-06-08 16:52:00,
2013-06-08 09:53:00,57.8,46.9,30.17,WSW,257,1.0,2.0,67,0.00,,,0.00,Wunderground v.1.15,2013-06-08 16:53:00,
2013-06-08 09:54:00,58.0,47.1,30.17,West,259,0.0,2.0,67,0.00,,,0.00,Wunderground v.1.15,2013-06-08 16:54:00,
2013-06-08 09:56:00,58.0,47.1,30.17,SSW,208,0.0,2.0,67,0.00,,,0.00,Wunderground v.1.15,2013-06-08 16:56:00,
2013-06-08 09:58:00,58.1,47.6,30.17,SSW,208,0.0,2.0,68,0.00,,,0.00,Wunderground v.1.15,2013-06-08 16:58:00,
2013-06-08 09:59:00,58.1,47.6,30.17,SSW,208,0.0,0.0,68,0.00,,,0.00,Wunderground v.1.15,2013-06-08 16:59:00,
2013-06-08 10:00:00,58.1,47.6,30.17,SSW,208,0.0,0.0,68,0.00,,,0.00,Wunderground v.1.15,2013-06-08 17:00:00,
2013-06-08 10:01:00,58.3,47.8,30.17,SSW,208,0.0,0.0,68,0.00,,,0.00,Wunderground v.1.15,2013-06-08 17:01:00,
2013-06-08 10:03:00,58.5,47.6,30.17,WSW,238,0.0,4.0,67,0.00,,,0.00,Wunderground v.1.15,2013-06-08 17:03:00,
2013-06-08 10:04:00,58.5,47.6,30.17,WSW,238,0.0,4.0,67,0.00,,,0.00,Wunderground v.1.15,2013-06-08 17:04:00,
2013-06-08 10:05:00,58.5,48.4,30.17,WSW,238,0.0,4.0,69,0.00,,,0.00,Wunderground v.1.15,2013-06-08 17:05:00,
2013-06-08 10:07:00,58.6,48.5,30.17,SW,236,0.0,4.0,69,0.00,,,0.00,Wunderground v.1.15,2013-06-08 17:07:00,
2013-06-08 10:09:00,58.8,49.0,30.17,WSW,237,0.0,4.0,70,0.00,,,0.00,Wunderground v.1.15,2013-06-08 17:09:00,
2013-06-08 10:10:00,58.9,49.1,30.17,WSW,237,0.0,0.0,70,0.00,,,0.00,Wunderground v.1.15,2013-06-08 17:10:00,
2013-06-08 10:12:00,59.1,48.1,30.17,WSW,254,0.0,0.0,67,0.00,,,0.00,Wunderground v.1.15,2013-06-08 17:12:00,
2013-06-08 10:14:00,59.2,48.2,30.17,WSW,254,0.0,0.0,67,0.00,,,0.00,Wunderground v.1.15,2013-06-08 17:14:00,
2013-06-08 10:16:00,59.4,48.4,30.17,West,261,1.0,3.0,67,0.00,,,0.00,Wunderground v.1.15,2013-06-08 17:16:00,
2013-06-08 10:17:00,59.5,47.7,30.17,West,259,0.0,3.0,65,0.00,,,0.00,Wunderground v.1.15,2013-06-08 17:17:00,
2013-06-08 10:18:00,59.5,47.7,30.17,West,259,0.0,3.0,65,0.00,,,0.00,Wunderground v.1.15,2013-06-08 17:18:00,
2013-06-08 10:19:00,59.5,48.1,30.17,West,259,0.0,0.0,66,0.00,,,0.00,Wunderground v.1.15,2013-06-08 17:19:00,
2013-06-08 10:20:00,59.5,48.1,30.17,West,259,0.0,0.0,66,0.00,,,0.00,Wunderground v.1.15,2013-06-08 17:20:00,
2013-06-08 10:22:00,59.7,48.3,30.17,West,259,0.0,1.0,66,0.00,,,0.00,Wunderground v.1.15,2013-06-08 17:22:00,
2013-06-08 10:23:00,59.7,48.3,30.17,WSW,254,0.0,2.0,66,0.00,,,0.00,Wunderground v.1.15,2013-06-08 17:23:00,
2013-06-08 10:24:00,59.7,47.9,30.17,WSW,254,0.0,2.0,65,0.00,,,0.00,Wunderground v.1.15,2013-06-08 17:24:00,
2013-06-08 10:25:00,59.7,47.9,30.17,WSW,254,0.0,2.0,65,0.00,,,0.00,Wunderground v.1.15,2013-06-08 17:25:00,
2013-06-08 10:28:00,59.7,47.9,30.17,WSW,254,0.0,2.0,65,0.00,,,0.00,Wunderground v.1.15,2013-06-08 17:28:00,
2013-06-08 10:29:00,59.8,49.6,30.17,ENE,57,1.0,1.0,69,0.00,,,0.00,Wunderground v.1.15,2013-06-08 17:29:00,
2013-06-08 10:30:00,59.8,49.6,30.17,NE,56,0.0,1.0,69,0.00,,,0.00,Wunderground v.1.15,2013-06-08 17:30:00,
2013-06-08 10:32:00,60.0,49.0,30.17,NE,56,0.0,1.0,67,0.00,,,0.00,Wunderground v.1.15,2013-06-08 17:32:00,
2013-06-08 10:33:00,60.0,48.6,30.17,WNW,297,1.0,1.0,66,0.00,,,0.00,Wunderground v.1.15,2013-06-08 17:33:00,
2013-06-08 10:35:00,60.0,48.2,30.17,West,263,0.0,3.0,65,0.00,,,0.00,Wunderground v.1.15,2013-06-08 17:35:00,
2013-06-08 10:38:00,60.1,48.3,30.17,West,263,0.0,3.0,65,0.00,,,0.00,Wunderground v.1.15,2013-06-08 17:38:00,
2013-06-08 10:40:00,60.3,48.1,30.17,WNW,288,0.0,1.0,64,0.00,,,0.00,Wunderground v.1.15,2013-06-08 17:40:00,
2013-06-08 10:43:00,60.0,48.2,30.17,West,279,0.0,2.0,65,0.00,,,0.00,Wunderground v.1.15,2013-06-08 17:43:00,
2013-06-08 10:45:00,60.1,48.3,30.17,West,279,0.0,2.0,65,0.00,,,0.00,Wunderground v.1.15,2013-06-08 17:45:00,
2013-06-08 10:46:00,60.1,48.3,30.17,West,279,0.0,2.0,65,0.00,,,0.00,Wunderground v.1.15,2013-06-08 17:46:00,
2013-06-08 10:49:00,60.3,48.1,30.17,WSW,254,0.0,3.0,64,0.00,,,0.00,Wunderground v.1.15,2013-06-08 17:49:00,
2013-06-08 10:51:00,60.4,49.0,30.17,SW,235,0.0,1.0,66,0.00,,,0.00,Wunderground v.1.15,2013-06-08 17:51:00,
2013-06-08 10:52:00,60.7,48.9,30.17,West,266,0.0,1.0,65,0.00,,,0.00,Wunderground v.1.15,2013-06-08 17:52:00,
2013-06-08 10:54:00,60.9,49.1,30.17,West,266,0.0,1.0,65,0.00,,,0.00,Wunderground v.1.15,2013-06-08 17:54:00,
2013-06-08 10:55:00,60.9,48.6,30.17,West,266,0.0,1.0,64,0.00,,,0.00,Wunderground v.1.15,2013-06-08 17:55:00,
2013-06-08 10:56:00,61.0,48.7,30.17,West,266,0.0,1.0,64,0.00,,,0.00,Wunderground v.1.15,2013-06-08 17:56:00,
2013-06-08 10:57:00,61.0,49.1,30.17,West,266,0.0,1.0,65,0.00,,,0.00,Wunderground v.1.15,2013-06-08 17:57:00,
2013-06-08 11:00:00,61.0,48.3,30.17,WSW,238,1.0,1.0,63,0.00,,,0.00,Wunderground v.1.15,2013-06-08 18:00:00,
2013-06-08 11:01:00,61.0,48.7,30.17,WSW,238,0.0,1.0,64,0.00,,,0.00,Wunderground v.1.15,2013-06-08 18:01:00,
2013-06-08 11:02:00,61.0,48.7,30.17,WSW,238,0.0,1.0,64,0.00,,,0.00,Wunderground v.1.15,2013-06-08 18:02:00,
2013-06-08 11:03:00,61.0,48.3,30.17,West,260,0.0,1.0,63,0.00,,,0.00,Wunderground v.1.15,2013-06-08 18:03:00,
2013-06-08 11:05:00,60.9,48.6,30.17,West,259,0.0,2.0,64,0.00,,,0.00,Wunderground v.1.15,2013-06-08 18:05:00,
2013-06-08 11:07:00,60.9,49.1,30.17,West,259,0.0,2.0,65,0.00,,,0.00,Wunderground v.1.15,2013-06-08 18:07:00,
2013-06-08 11:08:00,61.0,49.6,30.17,WSW,239,1.0,2.0,66,0.00,,,0.00,Wunderground v.1.15,2013-06-08 18:08:00,
2013-06-08 11:12:00,61.0,49.1,30.17,WSW,239,0.0,0.0,65,0.00,,,0.00,Wunderground v.1.15,2013-06-08 18:12:00,
2013-06-08 11:13:00,61.0,49.1,30.17,WSW,238,2.0,2.0,65,0.00,,,0.00,Wunderground v.1.15,2013-06-08 18:13:00,
2013-06-08 11:17:00,61.0,49.1,30.17,SW,235,0.0,2.0,65,0.00,,,0.00,Wunderground v.1.15,2013-06-08 18:17:00,
2013-06-08 11:18:00,61.0,49.1,30.17,SW,236,0.0,2.0,65,0.00,,,0.00,Wunderground v.1.15,2013-06-08 18:18:00,
2013-06-08 11:22:00,61.0,48.7,30.17,WSW,244,2.0,2.0,64,0.00,,,0.00,Wunderground v.1.15,2013-06-08 18:22:00,
2013-06-08 11:23:00,61.0,48.3,30.17,SW,222,1.0,3.0,63,0.00,,,0.00,Wunderground v.1.15,2013-06-08 18:23:00,
2013-06-08 11:24:00,61.0,48.3,30.17,SW,233,0.0,3.0,63,0.00,,,0.00,Wunderground v.1.15,2013-06-08 18:24:00,
2013-06-08 11:27:00,61.2,49.3,30.17,SSW,205,0.0,3.0,65,0.00,,,0.00,Wunderground v.1.15,2013-06-08 18:27:00,
2013-06-08 11:28:00,61.2,50.2,30.17,SSW,205,1.0,3.0,67,0.00,,,0.00,Wunderground v.1.15,2013-06-08 18:28:00,
2013-06-08 11:29:00,61.2,50.2,30.17,SSW,205,0.0,3.0,67,0.00,,,0.00,Wunderground v.1.15,2013-06-08 18:29:00,
2013-06-08 11:33:00,61.5,49.2,30.17,West,274,0.0,1.0,64,0.00,,,0.00,Wunderground v.1.15,2013-06-08 18:33:00,
2013-06-08 11:34:00,61.5,49.2,30.17,WSW,250,0.0,1.0,64,0.00,,,0.00,Wunderground v.1.15,2013-06-08 18:34:00,
2013-06-08 11:39:00,61.8,49.5,30.17,West,259,1.0,2.0,64,0.00,,,0.00,Wunderground v.1.15,2013-06-08 18:39:00,
2013-06-08 11:41:00,61.8,49.5,30.17,West,259,0.0,1.0,64,0.00,,,0.00,Wunderground v.1.15,2013-06-08 18:41:00,
2013-06-08 11:44:00,62.0,50.1,30.17,West,269,1.0,3.0,65,0.00,,,0.00,Wunderground v.1.15,2013-06-08 18:44:00,
2013-06-08 11:45:00,62.0,48.8,30.17,West,269,0.0,3.0,62,0.00,,,0.00,Wunderground v.1.15,2013-06-08 18:45:00,
2013-06-08 11:46:00,62.0,49.3,30.17,West,269,0.0,3.0,63,0.00,,,0.00,Wunderground v.1.15,2013-06-08 18:46:00,
2013-06-08 11:47:00,62.1,49.8,30.17,West,269,1.0,3.0,64,0.00,,,0.00,Wunderground v.1.15,2013-06-08 18:47:00,
2013-06-08 11:49:00,62.3,49.1,30.17,West,268,0.0,0.0,62,0.00,,,0.00,Wunderground v.1.15,2013-06-08 18:49:00,
2013-06-08 11:50:00,62.3,49.1,30.17,West,268,1.0,1.0,62,0.00,,,0.00,Wunderground v.1.15,2013-06-08 18:50:00,
2013-06-08 11:52:00,62.3,49.5,30.17,West,268,0.0,1.0,63,0.00,,,0.00,Wunderground v.1.15,2013-06-08 18:52:00,
2013-06-08 11:53:00,62.5,50.2,30.17,West,268,0.0,1.0,64,0.00,,,0.00,Wunderground v.1.15,2013-06-08 18:53:00,
2013-06-08 11:55:00,62.6,49.8,30.17,West,272,0.0,2.0,63,0.00,,,0.00,Wunderground v.1.15,2013-06-08 18:55:00,
2013-06-08 11:57:00,62.8,50.0,30.17,West,271,1.0,2.0,63,0.00,,,0.00,Wunderground v.1.15,2013-06-08 18:57:00,
2013-06-08 11:58:00,62.9,50.5,30.17,WSW,247,1.0,2.0,64,0.00,,,0.00,Wunderground v.1.15,2013-06-08 18:58:00,
2013-06-08 12:00:00,62.9,49.7,30.17,West,265,0.0,0.0,62,0.00,,,0.00,Wunderground v.1.15,2013-06-08 19:00:00,
2013-06-08 12:03:00,63.1,51.1,30.17,SE,146,0.0,1.0,65,0.00,,,0.00,Wunderground v.1.15,2013-06-08 19:03:00,
2013-06-08 12:04:00,63.1,49.9,30.17,WSW,258,1.0,3.0,62,0.00,,,0.00,Wunderground v.1.15,2013-06-08 19:04:00,
2013-06-08 12:06:00,63.2,49.1,30.17,SW,232,4.0,4.0,60,0.00,,,0.00,Wunderground v.1.15,2013-06-08 19:06:00,
2013-06-08 12:08:00,63.1,49.0,30.17,WSW,250,2.0,4.0,60,0.00,,,0.00,Wunderground v.1.15,2013-06-08 19:08:00,
2013-06-08 12:09:00,63.1,49.0,30.17,WSW,251,2.0,4.0,60,0.00,,,0.00,Wunderground v.1.15,2013-06-08 19:09:00,
2013-06-08 12:11:00,62.8,48.7,30.17,West,262,1.0,5.0,60,0.00,,,0.00,Wunderground v.1.15,2013-06-08 19:11:00,
2013-06-08 12:12:00,62.8,49.1,30.17,West,261,0.0,5.0,61,0.00,,,0.00,Wunderground v.1.15,2013-06-08 19:12:00,
2013-06-08 12:13:00,62.6,49.0,30.17,West,268,1.0,5.0,61,0.00,,,0.00,Wunderground v.1.15,2013-06-08 19:13:00,
2013-06-08 12:15:00,62.5,49.3,30.17,West,271,0.0,5.0,62,0.00,,,0.00,Wunderground v.1.15,2013-06-08 19:15:00,
2013-06-08 12:17:00,62.3,49.1,30.17,WSW,255,1.0,5.0,62,0.00,,,0.00,Wunderground v.1.15,2013-06-08 19:17:00,
2013-06-08 12:18:00,62.1,48.9,30.17,WSW,255,0.0,5.0,62,0.00,,,0.00,Wunderground v.1.15,2013-06-08 19:18:00,
2013-06-08 12:19:00,62.1,48.9,30.17,WSW,255,0.0,5.0,62,0.00,,,0.00,Wunderground v.1.15,2013-06-08 19:19:00,
2013-06-08 12:20:00,62.1,49.8,30.17,WSW,255,0.0,1.0,64,0.00,,,0.00,Wunderground v.1.15,2013-06-08 19:20:00,
2013-06-08 12:22:00,62.0,48.8,30.17,WSW,255,0.0,1.0,62,0.00,,,0.00,Wunderground v.1.15,2013-06-08 19:22:00,
2013-06-08 12:24:00,62.0,48.8,30.17,WSW,255,0.0,1.0,62,0.00,,,0.00,Wunderground v.1.15,2013-06-08 19:24:00,
2013-06-08 12:25:00,62.1,50.2,30.17,WSW,255,0.0,1.0,65,0.00,,,0.00,Wunderground v.1.15,2013-06-08 19:25:00,
2013-06-08 12:28:00,62.8,50.9,30.17,West,264,0.0,1.0,65,0.00,,,0.00,Wunderground v.1.15,2013-06-08 19:28:00,
2013-06-08 12:29:00,62.9,50.1,30.17,WSW,248,2.0,2.0,63,0.00,,,0.00,Wunderground v.1.15,2013-06-08 19:29:00,
2013-06-08 12:30:00,62.9,50.1,30.17,WSW,248,0.0,0.0,63,0.00,,,0.00,Wunderground v.1.15,2013-06-08 19:30:00,
2013-06-08 12:31:00,62.9,50.1,30.17,WSW,248,0.0,0.0,63,0.00,,,0.00,Wunderground v.1.15,2013-06-08 19:31:00,
2013-06-08 12:33:00,63.6,49.9,30.17,WNW,290,0.0,1.0,61,0.00,,,0.00,Wunderground v.1.15,2013-06-08 19:33:00,
2013-06-08 12:34:00,63.7,50.0,30.17,WNW,290,1.0,1.0,61,0.00,,,0.00,Wunderground v.1.15,2013-06-08 19:34:00,
2013-06-08 12:35:00,63.7,49.5,30.17,WNW,290,2.0,2.0,60,0.00,,,0.00,Wunderground v.1.15,2013-06-08 19:35:00,
2013-06-08 12:36:00,63.9,49.7,30.17,WNW,283,1.0,2.0,60,0.00,,,0.00,Wunderground v.1.15,2013-06-08 19:36:00,
2013-06-08 12:39:00,64.0,49.8,30.17,WSW,254,1.0,6.0,60,0.00,,,0.00,Wunderground v.1.15,2013-06-08 19:39:00,
2013-06-08 12:41:00,64.2,49.6,30.17,West,272,4.0,4.0,59,0.00,,,0.00,Wunderground v.1.15,2013-06-08 19:41:00,
2013-06-08 12:42:00,64.2,48.6,30.17,West,263,1.0,4.0,57,0.00,,,0.00,Wunderground v.1.15,2013-06-08 19:42:00,
2013-06-08 12:43:00,64.0,48.9,30.17,West,262,0.0,4.0,58,0.00,,,0.00,Wunderground v.1.15,2013-06-08 19:43:00,
2013-06-08 12:44:00,63.9,48.8,30.17,West,262,0.0,4.0,58,0.00,,,0.00,Wunderground v.1.15,2013-06-08 19:44:00,
2013-06-08 12:45:00,63.9,49.3,30.17,West,269,2.0,4.0,59,0.00,,,0.00,Wunderground v.1.15,2013-06-08 19:45:00,
2013-06-08 12:46:00,63.7,49.1,30.17,West,274,1.0,4.0,59,0.00,,,0.00,Wunderground v.1.15,2013-06-08 19:46:00,
2013-06-08 12:47:00,63.7,48.6,30.17,WNW,285,0.0,4.0,58,0.00,,,0.00,Wunderground v.1.15,2013-06-08 19:47:00,
2013-06-08 12:49:00,63.6,49.0,30.17,WNW,284,0.0,4.0,59,0.00,,,0.00,Wunderground v.1.15,2013-06-08 19:49:00,
2013-06-08 12:50:00,63.6,49.0,30.17,WNW,284,0.0,1.0,59,0.00,,,0.00,Wunderground v.1.15,2013-06-08 19:50:00,
2013-06-08 12:51:00,63.6,49.0,30.17,WNW,283,1.0,1.0,59,0.00,,,0.00,Wunderground v.1.15,2013-06-08 19:51:00,
2013-06-08 12:52:00,63.6,49.0,30.17,WNW,283,0.0,1.0,59,0.00,,,0.00,Wunderground v.1.15,2013-06-08 19:52:00,
2013-06-08 12:54:00,63.7,49.1,30.17,SE,138,1.0,4.0,59,0.00,,,0.00,Wunderground v.1.15,2013-06-08 19:54:00,
2013-06-08 12:56:00,63.7,49.5,30.17,West,275,0.0,4.0,60,0.00,,,0.00,Wunderground v.1.15,2013-06-08 19:56:00,
2013-06-08 12:57:00,63.9,48.8,30.17,SW,232,3.0,4.0,58,0.00,,,0.00,Wunderground v.1.15,2013-06-08 19:57:00,
2013-06-08 12:58:00,63.9,48.8,30.17,WSW,254,5.0,5.0,58,0.00,,,0.00,Wunderground v.1.15,2013-06-08 19:58:00,
2013-06-08 12:59:00,63.7,48.6,30.17,West,278,0.0,1.0,58,0.00,,,0.00,Wunderground v.1.15,2013-06-08 19:59:00,
2013-06-08 13:02:00,63.9,49.7,30.17,West,276,0.0,1.0,60,0.00,,,0.00,Wunderground v.1.15,2013-06-08 20:02:00,
2013-06-08 13:05:00,64.0,50.3,30.16,West,275,0.0,2.0,61,0.00,,,0.00,Wunderground v.1.15,2013-06-08 20:05:00,
2013-06-08 13:06:00,64.0,50.3,30.16,SE,125,0.0,2.0,61,0.00,,,0.00,Wunderground v.1.15,2013-06-08 20:06:00,
2013-06-08 13:07:00,64.0,50.3,30.16,SSE,161,0.0,2.0,61,0.00,,,0.00,Wunderground v.1.15,2013-06-08 20:07:00,
2013-06-08 13:09:00,64.2,49.6,30.16,South,174,0.0,2.0,59,0.00,,,0.00,Wunderground v.1.15,2013-06-08 20:09:00,
2013-06-08 13:11:00,64.2,49.6,30.16,SSW,211,0.0,1.0,59,0.00,,,0.00,Wunderground v.1.15,2013-06-08 20:11:00,
2013-06-08 13:12:00,64.2,49.6,30.16,West,263,5.0,6.0,59,0.00,,,0.00,Wunderground v.1.15,2013-06-08 20:12:00,
2013-06-08 13:13:00,64.4,49.3,30.16,WSW,255,0.0,6.0,58,0.00,,,0.00,Wunderground v.1.15,2013-06-08 20:13:00,
2013-06-08 13:14:00,64.4,49.8,30.16,West,275,2.0,6.0,59,0.00,,,0.00,Wunderground v.1.15,2013-06-08 20:14:00,
2013-06-08 13:17:00,64.5,49.8,30.16,SSW,200,0.0,6.0,59,0.00,,,0.00,Wunderground v.1.15,2013-06-08 20:17:00,
2013-06-08 13:18:00,64.7,49.1,30.17,SSW,200,0.0,6.0,57,0.00,,,0.00,Wunderground v.1.15,2013-06-08 20:18:00,
2013-06-08 13:20:00,64.8,50.1,30.17,SSW,200,0.0,1.0,59,0.00,,,0.00,Wunderground v.1.15,2013-06-08 20:20:00,
2013-06-08 13:22:00,64.8,50.1,30.17,SSW,200,1.0,1.0,59,0.00,,,0.00,Wunderground v.1.15,2013-06-08 20:22:00,
2013-06-08 13:23:00,65.0,50.3,30.17,SSE,159,1.0,4.0,59,0.00,,,0.00,Wunderground v.1.15,2013-06-08 20:23:00,
2013-06-08 13:25:00,65.3,51.9,30.17,SSE,156,2.0,4.0,62,0.00,,,0.00,Wunderground v.1.15,2013-06-08 20:25:00,
2013-06-08 13:27:00,65.5,50.8,30.17,SSW,193,0.0,4.0,59,0.00,,,0.00,Wunderground v.1.15,2013-06-08 20:27:00,
2013-06-08 13:28:00,65.7,51.0,30.17,ESE,117,6.0,6.0,59,0.00,,,0.00,Wunderground v.1.15,2013-06-08 20:28:00,
2013-06-08 13:29:00,65.8,51.1,30.17,ESE,115,3.0,6.0,59,0.00,,,0.00,Wunderground v.1.15,2013-06-08 20:29:00,
2013-06-08 13:30:00,65.8,49.2,30.17,East,101,0.0,2.0,55,0.00,,,0.00,Wunderground v.1.15,2013-06-08 20:30:00,
2013-06-08 13:32:00,65.5,49.4,30.16,West,279,2.0,2.0,56,0.00,,,0.00,Wunderground v.1.15,2013-06-08 20:32:00,
2013-06-08 13:33:00,65.5,49.4,30.16,WNW,288,2.0,2.0,56,0.00,,,0.00,Wunderground v.1.15,2013-06-08 20:33:00,
2013-06-08 13:34:00,65.3,49.2,30.16,WNW,299,2.0,2.0,56,0.00,,,0.00,Wunderground v.1.15,2013-06-08 20:34:00,
2013-06-08 13:37:00,65.0,48.9,30.16,WSW,238,0.0,3.0,56,0.00,,,0.00,Wunderground v.1.15,2013-06-08 20:37:00,
2013-06-08 13:38:00,64.8,50.1,30.16,WSW,244,0.0,3.0,59,0.00,,,0.00,Wunderground v.1.15,2013-06-08 20:38:00,
2013-06-08 13:39:00,64.8,50.1,30.16,SE,138,5.0,5.0,59,0.00,,,0.00,Wunderground v.1.15,2013-06-08 20:39:00,
2013-06-08 13:40:00,65.0,50.8,30.16,West,261,1.0,2.0,60,0.00,,,0.00,Wunderground v.1.15,2013-06-08 20:40:00,
2013-06-08 13:42:00,65.2,50.0,30.16,WSW,249,1.0,2.0,58,0.00,,,0.00,Wunderground v.1.15,2013-06-08 20:42:00,
2013-06-08 13:43:00,65.3,49.7,30.16,WSW,255,2.0,2.0,57,0.00,,,0.00,Wunderground v.1.15,2013-06-08 20:43:00,
2013-06-08 13:44:00,65.3,49.2,30.16,West,263,0.0,2.0,56,0.00,,,0.00,Wunderground v.1.15,2013-06-08 20:44:00,
2013-06-08 13:46:00,65.3,50.1,30.16,West,263,0.0,2.0,58,0.00,,,0.00,Wunderground v.1.15,2013-06-08 20:46:00,
2013-06-08 13:47:00,65.3,49.2,30.16,WSW,257,6.0,6.0,56,0.00,,,0.00,Wunderground v.1.15,2013-06-08 20:47:00,
2013-06-08 13:49:00,65.2,49.6,30.16,West,262,0.0,6.0,57,0.00,,,0.00,Wunderground v.1.15,2013-06-08 20:49:00,
2013-06-08 13:51:00,65.0,49.9,30.16,West,267,2.0,2.0,58,0.00,,,0.00,Wunderground v.1.15,2013-06-08 20:51:00,
2013-06-08 13:52:00,64.7,49.6,30.16,WSW,248,0.0,2.0,58,0.00,,,0.00,Wunderground v.1.15,2013-06-08 20:52:00,
2013-06-08 13:55:00,64.5,49.4,30.16,WSW,250,0.0,5.0,58,0.00,,,0.00,Wunderground v.1.15,2013-06-08 20:55:00,
2013-06-08 13:56:00,64.5,49.4,30.16,WSW,250,0.0,5.0,58,0.00,,,0.00,Wunderground v.1.15,2013-06-08 20:56:00,
2013-06-08 13:57:00,64.5,49.8,30.16,WSW,250,1.0,5.0,59,0.00,,,0.00,Wunderground v.1.15,2013-06-08 20:57:00,
2013-06-08 13:58:00,64.5,49.8,30.16,WSW,250,0.0,5.0,59,0.00,,,0.00,Wunderground v.1.15,2013-06-08 20:58:00,
2013-06-08 14:01:00,64.5,50.3,30.16,SW,236,0.0,1.0,60,0.00,,,0.00,Wunderground v.1.15,2013-06-08 21:01:00,
2013-06-08 14:02:00,64.5,50.3,30.16,SW,236,0.0,1.0,60,0.00,,,0.00,Wunderground v.1.15,2013-06-08 21:02:00,
2013-06-08 14:03:00,64.5,50.3,30.16,SW,236,0.0,1.0,60,0.00,,,0.00,Wunderground v.1.15,2013-06-08 21:03:00,
2013-06-08 14:04:00,64.5,50.3,30.16,West,277,0.0,1.0,60,0.00,,,0.00,Wunderground v.1.15,2013-06-08 21:04:00,
2013-06-08 14:06:00,64.8,51.0,30.16,SSW,208,1.0,2.0,61,0.00,,,0.00,Wunderground v.1.15,2013-06-08 21:06:00,
2013-06-08 14:08:00,65.0,50.3,30.16,SE,131,2.0,3.0,59,0.00,,,0.00,Wunderground v.1.15,2013-06-08 21:08:00,
2013-06-08 14:10:00,65.2,51.8,30.16,SSW,203,0.0,1.0,62,0.00,,,0.00,Wunderground v.1.15,2013-06-08 21:10:00,
2013-06-08 14:12:00,65.5,50.3,30.16,SSW,203,0.0,1.0,58,0.00,,,0.00,Wunderground v.1.15,2013-06-08 21:12:00,
2013-06-08 14:13:00,65.5,49.9,30.16,SSW,203,0.0,1.0,57,0.00,,,0.00,Wunderground v.1.15,2013-06-08 21:13:00,
2013-06-08 14:14:00,65.5,49.9,30.16,SSW,203,0.0,1.0,57,0.00,,,0.00,Wunderground v.1.15,2013-06-08 21:14:00,
2013-06-08 14:15:00,65.5,50.3,30.16,West,264,0.0,7.0,58,0.00,,,0.00,Wunderground v.1.15,2013-06-08 21:15:00,
2013-06-08 14:17:00,65.5,49.9,30.15,West,264,1.0,7.0,57,0.00,,,0.00,Wunderground v.1.15,2013-06-08 21:17:00,
2013-06-08 14:18:00,65.5,49.9,30.15,West,263,0.0,7.0,57,0.00,,,0.00,Wunderground v.1.15,2013-06-08 21:18:00,
2013-06-08 14:19:00,65.5,50.8,30.15,West,263,0.0,7.0,59,0.00,,,0.00,Wunderground v.1.15,2013-06-08 21:19:00,
2013-06-08 14:21:00,65.5,50.3,30.15,WSW,250,0.0,0.0,58,0.00,,,0.00,Wunderground v.1.15,2013-06-08 21:21:00,
2013-06-08 14:22:00,65.5,50.8,30.15,WSW,250,0.0,0.0,59,0.00,,,0.00,Wunderground v.1.15,2013-06-08 21:22:00,
2013-06-08 14:24:00,65.3,49.7,30.15,WSW,250,0.0,0.0,57,0.00,,,0.00,Wunderground v.1.15,2013-06-08 21:24:00,
2013-06-08 14:26:00,65.3,50.1,30.15,WSW,250,1.0,2.0,58,0.00,,,0.00,Wunderground v.1.15,2013-06-08 21:26:00,
2013-06-08 14:28:00,65.3,50.1,30.15,WSW,250,1.0,2.0,58,0.00,,,0.00,Wunderground v.1.15,2013-06-08 21:28:00,
2013-06-08 14:29:00,65.5,50.8,30.15,WSW,250,1.0,2.0,59,0.00,,,0.00,Wunderground v.1.15,2013-06-08 21:29:00,
2013-06-08 14:30:00,65.5,50.8,30.15,WSW,250,0.0,1.0,59,0.00,,,0.00,Wunderground v.1.15,2013-06-08 21:30:00,
2013-06-08 14:32:00,65.3,49.2,30.15,West,273,0.0,1.0,56,0.00,,,0.00,Wunderground v.1.15,2013-06-08 21:32:00,
2013-06-08 14:33:00,65.3,49.7,30.15,NNW,328,0.0,1.0,57,0.00,,,0.00,Wunderground v.1.15,2013-06-08 21:33:00,
2013-06-08 14:35:00,65.5,51.2,30.15,NNW,329,0.0,1.0,60,0.00,,,0.00,Wunderground v.1.15,2013-06-08 21:35:00,
2013-06-08 14:37:00,65.5,50.8,30.15,NW,320,1.0,1.0,59,0.00,,,0.00,Wunderground v.1.15,2013-06-08 21:37:00,
2013-06-08 14:38:00,65.7,51.0,30.15,NW,306,0.0,1.0,59,0.00,,,0.00,Wunderground v.1.15,2013-06-08 21:38:00,
2013-06-08 14:40:00,65.8,50.6,30.15,NW,306,0.0,0.0,58,0.00,,,0.00,Wunderground v.1.15,2013-06-08 21:40:00,
2013-06-08 14:42:00,65.8,51.1,30.15,North,9,1.0,1.0,59,0.00,,,0.00,Wunderground v.1.15,2013-06-08 21:42:00,
2013-06-08 14:43:00,65.8,49.7,30.15,North,355,0.0,3.0,56,0.00,,,0.00,Wunderground v.1.15,2013-06-08 21:43:00,
2013-06-08 14:45:00,66.0,51.7,30.15,ESE,103,0.0,3.0,60,0.00,,,0.00,Wunderground v.1.15,2013-06-08 21:45:00,
2013-06-08 14:47:00,66.1,50.4,30.15,ESE,121,0.0,5.0,57,0.00,,,0.00,Wunderground v.1.15,2013-06-08 21:47:00,
2013-06-08 14:48:00,66.1,50.4,30.15,SSE,149,1.0,5.0,57,0.00,,,0.00,Wunderground v.1.15,2013-06-08 21:48:00,
2013-06-08 14:50:00,66.1,50.4,30.15,SW,230,0.0,2.0,57,0.00,,,0.00,Wunderground v.1.15,2013-06-08 21:50:00,
2013-06-08 14:53:00,66.1,49.9,30.15,West,263,3.0,5.0,56,0.00,,,0.00,Wunderground v.1.15,2013-06-08 21:53:00,
2013-06-08 14:54:00,66.0,49.4,30.15,West,279,0.0,5.0,55,0.00,,,0.00,Wunderground v.1.15,2013-06-08 21:54:00,
2013-06-08 14:55:00,65.8,49.7,30.15,West,279,0.0,5.0,56,0.00,,,0.00,Wunderground v.1.15,2013-06-08 21:55:00,
2013-06-08 14:56:00,65.8,49.7,30.15,West,279,0.0,5.0,56,0.00,,,0.00,Wunderground v.1.15,2013-06-08 21:56:00,
2013-06-08 14:58:00,65.7,50.0,30.15,West,266,1.0,5.0,57,0.00,,,0.00,Wunderground v.1.15,2013-06-08 21:58:00,
2013-06-08 14:59:00,65.5,49.9,30.15,West,266,0.0,5.0,57,0.00,,,0.00,Wunderground v.1.15,2013-06-08 21:59:00,
2013-06-08 15:01:00,65.5,49.9,30.15,West,266,0.0,1.0,57,0.00,,,0.00,Wunderground v.1.15,2013-06-08 22:01:00,
2013-06-08 15:02:00,65.5,50.3,30.15,West,269,3.0,3.0,58,0.00,,,0.00,Wunderground v.1.15,2013-06-08 22:02:00,
2013-06-08 15:03:00,65.5,50.3,30.15,WSW,250,3.0,4.0,58,0.00,,,0.00,Wunderground v.1.15,2013-06-08 22:03:00,
2013-06-08 15:04:00,65.5,49.4,30.15,WSW,250,0.0,4.0,56,0.00,,,0.00,Wunderground v.1.15,2013-06-08 22:04:00,
2013-06-08 15:06:00,65.5,50.3,30.15,WSW,250,1.0,4.0,58,0.00,,,0.00,Wunderground v.1.15,2013-06-08 22:06:00,
2013-06-08 15:07:00,65.5,49.9,30.15,WSW,250,0.0,4.0,57,0.00,,,0.00,Wunderground v.1.15,2013-06-08 22:07:00,
2013-06-08 15:08:00,65.5,49.9,30.15,WSW,250,0.0,4.0,57,0.00,,,0.00,Wunderground v.1.15,2013-06-08 22:08:00,
2013-06-08 15:09:00,65.5,50.8,30.15,West,266,0.0,4.0,59,0.00,,,0.00,Wunderground v.1.15,2013-06-08 22:09:00,
2013-06-08 15:12:00,65.5,49.4,30.15,WSW,237,0.0,5.0,56,0.00,,,0.00,Wunderground v.1.15,2013-06-08 22:12:00,
2013-06-08 15:13:00,65.5,49.9,30.15,WSW,237,0.0,5.0,57,0.00,,,0.00,Wunderground v.1.15,2013-06-08 22:13:00,
2013-06-08 15:14:00,65.5,50.8,30.15,West,280,0.0,5.0,59,0.00,,,0.00,Wunderground v.1.15,2013-06-08 22:14:00,
2013-06-08 15:17:00,65.5,49.4,30.15,WSW,254,1.0,5.0,56,0.00,,,0.00,Wunderground v.1.15,2013-06-08 22:17:00,
2013-06-08 15:18:00,65.5,50.8,30.15,WSW,254,2.0,5.0,59,0.00,,,0.00,Wunderground v.1.15,2013-06-08 22:18:00,
2013-06-08 15:19:00,65.5,50.3,30.15,WSW,257,1.0,5.0,58,0.00,,,0.00,Wunderground v.1.15,2013-06-08 22:19:00,
2013-06-08 15:20:00,65.7,50.5,30.15,WSW,257,0.0,1.0,58,0.00,,,0.00,Wunderground v.1.15,2013-06-08 22:20:00,
2013-06-08 15:23:00,65.7,49.6,30.15,SSW,203,0.0,3.0,56,0.00,,,0.00,Wunderground v.1.15,2013-06-08 22:23:00,
2013-06-08 15:24:00,65.7,49.1,30.15,SSW,203,0.0,3.0,55,0.00,,,0.00,Wunderground v.1.15,2013-06-08 22:24:00,
2013-06-08 15:25:00,65.7,49.6,30.15,SSW,203,0.0,3.0,56,0.00,,,0.00,Wunderground v.1.15,2013-06-08 22:25:00,
2013-06-08 15:26:00,65.7,49.6,30.15,SSW,203,0.0,3.0,56,0.00,,,0.00,Wunderground v.1.15,2013-06-08 22:26:00,
2013-06-08 15:28:00,65.7,50.5,30.15,SSW,203,0.0,3.0,58,0.00,,,0.00,Wunderground v.1.15,2013-06-08 22:28:00,
2013-06-08 15:30:00,65.7,50.5,30.15,SSW,205,0.0,0.0,58,0.00,,,0.00,Wunderground v.1.15,2013-06-08 22:30:00,
2013-06-08 15:31:00,65.7,50.0,30.15,SSW,205,0.0,1.0,57,0.00,,,0.00,Wunderground v.1.15,2013-06-08 22:31:00,
2013-06-08 15:33:00,65.7,50.0,30.15,SSW,207,0.0,1.0,57,0.00,,,0.00,Wunderground v.1.15,2013-06-08 22:33:00,
2013-06-08 15:35:00,65.5,49.9,30.15,SSW,207,2.0,2.0,57,0.00,,,0.00,Wunderground v.1.15,2013-06-08 22:35:00,
2013-06-08 15:36:00,65.5,50.3,30.15,SW,224,0.0,2.0,58,0.00,,,0.00,Wunderground v.1.15,2013-06-08 22:36:00,
2013-06-08 15:37:00,65.3,50.1,30.15,SW,224,2.0,4.0,58,0.00,,,0.00,Wunderground v.1.15,2013-06-08 22:37:00,
2013-06-08 15:38:00,65.3,50.1,30.15,SW,223,1.0,4.0,58,0.00,,,0.00,Wunderground v.1.15,2013-06-08 22:38:00,
2013-06-08 15:40:00,65.3,51.1,30.15,SW,223,0.0,1.0,60,0.00,,,0.00,Wunderground v.1.15,2013-06-08 22:40:00,
2013-06-08 15:41:00,65.5,50.8,30.15,SW,223,0.0,1.0,59,0.00,,,0.00,Wunderground v.1.15,2013-06-08 22:41:00,
2013-06-08 15:42:00,65.5,50.8,30.15,SW,223,0.0,1.0,59,0.00,,,0.00,Wunderground v.1.15,2013-06-08 22:42:00,
2013-06-08 15:44:00,65.3,50.1,30.15,SW,223,0.0,2.0,58,0.00,,,0.00,Wunderground v.1.15,2013-06-08 22:44:00,
2013-06-08 15:45:00,65.3,50.1,30.15,WSW,241,0.0,2.0,58,0.00,,,0.00,Wunderground v.1.15,2013-06-08 22:45:00,
2013-06-08 15:47:00,65.3,50.6,30.15,WSW,241,1.0,2.0,59,0.00,,,0.00,Wunderground v.1.15,2013-06-08 22:47:00,
2013-06-08 15:50:00,65.2,50.5,30.15,SW,215,0.0,1.0,59,0.00,,,0.00,Wunderground v.1.15,2013-06-08 22:50:00,
2013-06-08 15:52:00,65.0,50.8,30.15,SW,222,1.0,2.0,60,0.00,,,0.00,Wunderground v.1.15,2013-06-08 22:52:00,
2013-06-08 15:53:00,65.0,50.3,30.15,WSW,248,0.0,2.0,59,0.00,,,0.00,Wunderground v.1.15,2013-06-08 22:53:00,
2013-06-08 15:55:00,64.8,50.1,30.15,WSW,252,1.0,9.0,59,0.00,,,0.00,Wunderground v.1.15,2013-06-08 22:55:00,
2013-06-08 15:58:00,64.7,50.0,30.15,WNW,290,4.0,9.0,59,0.00,,,0.00,Wunderground v.1.15,2013-06-08 22:58:00,
2013-06-08 15:59:00,64.4,49.8,30.15,West,265,0.0,1.0,59,0.00,,,0.00,Wunderground v.1.15,2013-06-08 22:59:00,
2013-06-08 16:00:00,64.4,50.2,30.15,West,279,0.0,1.0,60,0.00,,,0.00,Wunderground v.1.15,2013-06-08 23:00:00,
2013-06-08 16:04:00,64.2,50.0,30.15,WSW,248,0.0,5.0,60,0.00,,,0.00,Wunderground v.1.15,2013-06-08 23:04:00,
2013-06-08 16:05:00,64.2,50.5,30.15,WSW,248,1.0,5.0,61,0.00,,,0.00,Wunderground v.1.15,2013-06-08 23:05:00,
2013-06-08 16:09:00,64.2,50.9,30.15,WSW,246,1.0,5.0,62,0.00,,,0.00,Wunderground v.1.15,2013-06-08 23:09:00,
2013-06-08 16:10:00,64.2,50.5,30.15,WSW,246,0.0,1.0,61,0.00,,,0.00,Wunderground v.1.15,2013-06-08 23:10:00,
2013-06-08 16:12:00,64.4,50.7,30.15,WSW,252,0.0,1.0,61,0.00,,,0.00,Wunderground v.1.15,2013-06-08 23:12:00,
2013-06-08 16:15:00,64.4,50.7,30.15,WSW,255,2.0,2.0,61,0.00,,,0.00,Wunderground v.1.15,2013-06-08 23:15:00,
2013-06-08 16:17:00,64.4,49.8,30.15,SW,215,5.0,5.0,59,0.00,,,0.00,Wunderground v.1.15,2013-06-08 23:17:00,
2013-06-08 16:18:00,64.4,49.8,30.15,West,262,2.0,5.0,59,0.00,,,0.00,Wunderground v.1.15,2013-06-08 23:18:00,
2013-06-08 16:20:00,64.2,50.0,30.15,West,270,0.0,1.0,60,0.00,,,0.00,Wunderground v.1.15,2013-06-08 23:20:00,
2013-06-08 16:21:00,64.2,50.5,30.15,West,270,0.0,1.0,61,0.00,,,0.00,Wunderground v.1.15,2013-06-08 23:21:00,
2013-06-08 16:23:00,64.2,50.0,30.15,South,186,1.0,6.0,60,0.00,,,0.00,Wunderground v.1.15,2013-06-08 23:23:00,
2013-06-08 16:26:00,64.0,49.8,30.15,West,268,2.0,8.0,60,0.00,,,0.00,Wunderground v.1.15,2013-06-08 23:26:00,
2013-06-08 16:27:00,64.0,50.3,30.15,WSW,250,0.0,8.0,61,0.00,,,0.00,Wunderground v.1.15,2013-06-08 23:27:00,
2013-06-08 16:28:00,64.0,50.7,30.15,WSW,250,0.0,8.0,62,0.00,,,0.00,Wunderground v.1.15,2013-06-08 23:28:00,
2013-06-08 16:33:00,63.9,49.7,30.15,West,260,2.0,5.0,60,0.00,,,0.00,Wunderground v.1.15,2013-06-08 23:33:00,
2013-06-08 16:34:00,63.9,49.7,30.15,West,268,1.0,5.0,60,0.00,,,0.00,Wunderground v.1.15,2013-06-08 23:34:00,
2013-06-08 16:38:00,63.7,50.4,30.15,West,267,0.0,5.0,62,0.00,,,0.00,Wunderground v.1.15,2013-06-08 23:38:00,
2013-06-08 16:39:00,63.7,50.4,30.15,West,267,1.0,5.0,62,0.00,,,0.00,Wunderground v.1.15,2013-06-08 23:39:00,
2013-06-08 16:40:00,63.7,50.0,30.15,West,267,0.0,1.0,61,0.00,,,0.00,Wunderground v.1.15,2013-06-08 23:40:00,
2013-06-08 16:43:00,63.7,49.5,30.15,SSW,209,2.0,2.0,60,0.00,,,0.00,Wunderground v.1.15,2013-06-08 23:43:00,
2013-06-08 16:44:00,63.7,49.5,30.15,WSW,254,2.0,5.0,60,0.00,,,0.00,Wunderground v.1.15,2013-06-08 23:44:00,
2013-06-08 16:45:00,63.7,49.5,30.15,WSW,254,0.0,5.0,60,0.00,,,0.00,Wunderground v.1.15,2013-06-08 23:45:00,
2013-06-08 16:47:00,63.7,49.5,30.15,WSW,254,0.0,5.0,60,0.00,,,0.00,Wunderground v.1.15,2013-06-08 23:47:00,
2013-06-08 16:49:00,63.7,50.0,30.15,WNW,289,0.0,5.0,61,0.00,,,0.00,Wunderground v.1.15,2013-06-08 23:49:00,
2013-06-08 16:51:00,63.7,50.4,30.15,WNW,289,0.0,1.0,62,0.00,,,0.00,Wunderground v.1.15,2013-06-08 23:51:00,
2013-06-08 16:54:00,63.9,51.5,30.15,WNW,288,0.0,1.0,64,0.00,,,0.00,Wunderground v.1.15,2013-06-08 23:54:00,
2013-06-08 16:55:00,63.9,50.2,30.15,WNW,288,0.0,1.0,61,0.00,,,0.00,Wunderground v.1.15,2013-06-08 23:55:00,
2013-06-08 16:56:00,63.7,49.5,30.15,WSW,242,1.0,1.0,60,0.00,,,0.00,Wunderground v.1.15,2013-06-08 23:56:00,
2013-06-08 16:57:00,63.7,49.5,30.15,WSW,256,1.0,2.0,60,0.00,,,0.00,Wunderground v.1.15,2013-06-08 23:57:00,
2013-06-08 16:59:00,63.7,49.5,30.15,West,279,0.0,3.0,60,0.00,,,0.00,Wunderground v.1.15,2013-06-08 23:59:00,
2013-06-08 17:00:00,63.7,50.0,30.15,West,279,0.0,0.0,61,0.00,,,0.00,Wunderground v.1.15,2013-06-09 00:00:00,
2013-06-08 17:02:00,63.6,49.9,30.15,WSW,238,3.0,3.0,61,0.00,,,0.00,Wunderground v.1.15,2013-06-09 00:02:00,
2013-06-08 17:04:00,63.6,49.9,30.15,SW,234,1.0,5.0,61,0.00,,,0.00,Wunderground v.1.15,2013-06-09 00:04:00,
2013-06-08 17:05:00,63.6,49.9,30.15,SW,234,1.0,5.0,61,0.00,,,0.00,Wunderground v.1.15,2013-06-09 00:05:00,
2013-06-08 17:08:00,63.6,50.3,30.15,SW,234,1.0,5.0,62,0.00,,,0.00,Wunderground v.1.15,2013-06-09 00:08:00,
2013-06-08 17:10:00,63.7,51.3,30.15,WSW,257,1.0,1.0,64,0.00,,,0.00,Wunderground v.1.15,2013-06-09 00:10:00,
2013-06-08 17:11:00,63.6,49.9,30.15,West,276,2.0,2.0,61,0.00,,,0.00,Wunderground v.1.15,2013-06-09 00:11:00,
2013-06-08 17:14:00,63.6,49.9,30.15,WSW,253,0.0,4.0,61,0.00,,,0.00,Wunderground v.1.15,2013-06-09 00:14:00,
2013-06-08 17:16:00,63.4,50.1,30.15,WSW,253,0.0,4.0,62,0.00,,,0.00,Wunderground v.1.15,2013-06-09 00:16:00,
2013-06-08 17:17:00,63.4,50.1,30.14,WSW,253,1.0,4.0,62,0.00,,,0.00,Wunderground v.1.15,2013-06-09 00:17:00,
2013-06-08 17:21:00,63.2,49.1,30.14,West,261,2.0,5.0,60,0.00,,,0.00,Wunderground v.1.15,2013-06-09 00:21:00,
2013-06-08 17:22:00,63.1,49.4,30.14,West,261,0.0,5.0,61,0.00,,,0.00,Wunderground v.1.15,2013-06-09 00:22:00,
2013-06-08 17:23:00,63.1,49.9,30.14,West,273,0.0,5.0,62,0.00,,,0.00,Wunderground v.1.15,2013-06-09 00:23:00,
2013-06-08 17:28:00,62.8,48.7,30.14,South,184,3.0,5.0,60,0.00,,,0.00,Wunderground v.1.15,2013-06-09 00:28:00,
2013-06-08 17:33:00,62.5,48.9,30.14,West,264,1.0,4.0,61,0.00,,,0.00,Wunderground v.1.15,2013-06-09 00:33:00,
2013-06-08 17:34:00,62.5,48.9,30.14,West,269,0.0,4.0,61,0.00,,,0.00,Wunderground v.1.15,2013-06-09 00:34:00,
2013-06-08 17:35:00,62.5,48.9,30.14,West,269,0.0,4.0,61,0.00,,,0.00,Wunderground v.1.15,2013-06-09 00:35:00,
2013-06-08 17:39:00,62.5,49.3,30.14,West,265,0.0,4.0,62,0.00,,,0.00,Wunderground v.1.15,2013-06-09 00:39:00,
2013-06-08 17:40:00,62.5,49.7,30.14,West,259,0.0,1.0,63,0.00,,,0.00,Wunderground v.1.15,2013-06-09 00:40:00,
2013-06-08 17:44:00,62.3,49.1,30.14,SW,227,0.0,2.0,62,0.00,,,0.00,Wunderground v.1.15,2013-06-09 00:44:00,
2013-06-08 17:46:00,62.3,49.5,30.14,WSW,257,0.0,2.0,63,0.00,,,0.00,Wunderground v.1.15,2013-06-09 00:46:00,
2013-06-08 17:48:00,62.3,48.7,30.14,West,275,0.0,4.0,61,0.00,,,0.00,Wunderground v.1.15,2013-06-09 00:48:00,
2013-06-08 17:49:00,62.3,49.1,30.14,West,271,0.0,4.0,62,0.00,,,0.00,Wunderground v.1.15,2013-06-09 00:49:00,
2013-06-08 17:51:00,62.3,49.1,30.14,West,271,0.0,1.0,62,0.00,,,0.00,Wunderground v.1.15,2013-06-09 00:51:00,
2013-06-08 17:53:00,62.3,49.1,30.14,WSW,246,0.0,2.0,62,0.00,,,0.00,Wunderground v.1.15,2013-06-09 00:53:00,
2013-06-08 17:54:00,62.3,48.7,30.14,WSW,251,1.0,3.0,61,0.00,,,0.00,Wunderground v.1.15,2013-06-09 00:54:00,
2013-06-08 17:57:00,62.3,49.1,30.14,WSW,247,6.0,6.0,62,0.00,,,0.00,Wunderground v.1.15,2013-06-09 00:57:00,
2013-06-08 17:59:00,62.3,49.1,30.14,WSW,251,1.0,6.0,62,0.00,,,0.00,Wunderground v.1.15,2013-06-09 00:59:00,
2013-06-08 18:02:00,62.1,48.5,30.14,SW,221,2.0,6.0,61,0.00,,,0.00,Wunderground v.1.15,2013-06-09 01:02:00,
2013-06-08 18:03:00,62.1,48.5,30.14,SW,221,0.0,6.0,61,0.00,,,0.00,Wunderground v.1.15,2013-06-09 01:03:00,
2013-06-08 18:04:00,62.1,48.9,30.14,WSW,240,0.0,6.0,62,0.00,,,0.00,Wunderground v.1.15,2013-06-09 01:04:00,
2013-06-08 18:06:00,62.1,48.9,30.14,WSW,240,0.0,6.0,62,0.00,,,0.00,Wunderground v.1.15,2013-06-09 01:06:00,
2013-06-08 18:07:00,62.1,48.9,30.14,SW,226,0.0,6.0,62,0.00,,,0.00,Wunderground v.1.15,2013-06-09 01:07:00,
2013-06-08 18:08:00,62.1,48.9,30.14,SW,226,1.0,6.0,62,0.00,,,0.00,Wunderground v.1.15,2013-06-09 01:08:00,
2013-06-08 18:09:00,62.1,48.9,30.14,SW,236,1.0,6.0,62,0.00,,,0.00,Wunderground v.1.15,2013-06-09 01:09:00,
2013-06-08 18:11:00,62.3,49.1,30.14,WSW,241,1.0,1.0,62,0.00,,,0.00,Wunderground v.1.15,2013-06-09 01:11:00,
2013-06-08 18:13:00,62.3,48.7,30.14,West,265,0.0,1.0,61,0.00,,,0.00,Wunderground v.1.15,2013-06-09 01:13:00,
2013-06-08 18:15:00,62.3,48.7,30.14,WSW,246,0.0,1.0,61,0.00,,,0.00,Wunderground v.1.15,2013-06-09 01:15:00,
2013-06-08 18:17:00,62.5,48.9,30.14,WSW,246,1.0,1.0,61,0.00,,,0.00,Wunderground v.1.15,2013-06-09 01:17:00,
2013-06-08 18:18:00,62.3,48.7,30.13,WSW,246,0.0,1.0,61,0.00,,,0.00,Wunderground v.1.15,2013-06-09 01:18:00,
2013-06-08 18:20:00,62.5,49.3,30.13,WSW,246,0.0,0.0,62,0.00,,,0.00,Wunderground v.1.15,2013-06-09 01:20:00,
2013-06-08 18:23:00,62.5,48.9,30.13,WSW,248,0.0,1.0,61,0.00,,,0.00,Wunderground v.1.15,2013-06-09 01:23:00,
2013-06-08 18:26:00,62.5,49.3,30.13,WSW,248,1.0,1.0,62,0.00,,,0.00,Wunderground v.1.15,2013-06-09 01:26:00,
2013-06-08 18:27:00,62.5,49.3,30.13,WSW,248,0.0,1.0,62,0.00,,,0.00,Wunderground v.1.15,2013-06-09 01:27:00,
2013-06-08 18:28:00,62.5,49.3,30.13,WSW,248,0.0,1.0,62,0.00,,,0.00,Wunderground v.1.15,2013-06-09 01:28:00,
2013-06-08 18:29:00,62.5,49.3,30.13,East,101,0.0,2.0,62,0.00,,,0.00,Wunderground v.1.15,2013-06-09 01:29:00,
2013-06-08 18:32:00,62.5,49.7,30.13,SW,216,0.0,2.0,63,0.00,,,0.00,Wunderground v.1.15,2013-06-09 01:32:00,
2013-06-08 18:33:00,62.3,49.1,30.13,SW,216,0.0,2.0,62,0.00,,,0.00,Wunderground v.1.15,2013-06-09 01:33:00,
2013-06-08 18:34:00,62.3,49.1,30.13,SW,216,0.0,2.0,62,0.00,,,0.00,Wunderground v.1.15,2013-06-09 01:34:00,
2013-06-08 18:38:00,62.3,49.1,30.13,WSW,242,0.0,2.0,62,0.00,,,0.00,Wunderground v.1.15,2013-06-09 01:38:00,
2013-06-08 18:40:00,62.3,49.1,30.13,WSW,242,0.0,0.0,62,0.00,,,0.00,Wunderground v.1.15,2013-06-09 01:40:00,
2013-06-08 18:43:00,62.3,49.1,30.13,WSW,256,5.0,5.0,62,0.00,,,0.00,Wunderground v.1.15,2013-06-09 01:43:00,
2013-06-08 18:44:00,62.3,49.1,30.13,West,259,1.0,6.0,62,0.00,,,0.00,Wunderground v.1.15,2013-06-09 01:44:00,
2013-06-08 18:45:00,62.3,48.2,30.13,SW,231,3.0,6.0,60,0.00,,,0.00,Wunderground v.1.15,2013-06-09 01:45:00,
2013-06-08 18:48:00,62.1,48.9,30.13,SSW,205,1.0,6.0,62,0.00,,,0.00,Wunderground v.1.15,2013-06-09 01:48:00,
2013-06-08 18:49:00,62.1,48.9,30.13,WSW,246,0.0,6.0,62,0.00,,,0.00,Wunderground v.1.15,2013-06-09 01:49:00,
2013-06-08 18:50:00,62.1,48.9,30.13,WSW,246,0.0,1.0,62,0.00,,,0.00,Wunderground v.1.15,2013-06-09 01:50:00,
2013-06-08 18:53:00,62.0,48.4,30.13,WSW,246,1.0,2.0,61,0.00,,,0.00,Wunderground v.1.15,2013-06-09 01:53:00,
2013-06-08 18:54:00,62.0,48.4,30.13,WSW,246,1.0,2.0,61,0.00,,,0.00,Wunderground v.1.15,2013-06-09 01:54:00,
2013-06-08 18:57:00,61.8,48.2,30.13,WSW,248,0.0,5.0,61,0.00,,,0.00,Wunderground v.1.15,2013-06-09 01:57:00,
2013-06-08 18:58:00,61.8,47.8,30.13,WSW,257,2.0,5.0,60,0.00,,,0.00,Wunderground v.1.15,2013-06-09 01:58:00,
2013-06-08 18:59:00,61.8,47.8,30.13,WSW,257,0.0,5.0,60,0.00,,,0.00,Wunderground v.1.15,2013-06-09 01:59:00,
2013-06-08 19:00:00,61.7,48.1,30.13,WSW,257,0.0,1.0,61,0.00,,,0.00,Wunderground v.1.15,2013-06-09 02:00:00,
2013-06-08 19:02:00,61.7,48.1,30.13,WSW,248,1.0,5.0,61,0.00,,,0.00,Wunderground v.1.15,2013-06-09 02:02:00,
2013-06-08 19:04:00,61.7,48.1,30.13,WSW,248,0.0,5.0,61,0.00,,,0.00,Wunderground v.1.15,2013-06-09 02:04:00,
2013-06-08 19:06:00,61.7,48.5,30.13,WSW,255,1.0,6.0,62,0.00,,,0.00,Wunderground v.1.15,2013-06-09 02:06:00,
2013-06-08 19:07:00,61.7,48.1,30.13,West,259,2.0,6.0,61,0.00,,,0.00,Wunderground v.1.15,2013-06-09 02:07:00,
2013-06-08 19:09:00,61.7,48.1,30.13,WNW,289,0.0,6.0,61,0.00,,,0.00,Wunderground v.1.15,2013-06-09 02:09:00,
2013-06-08 19:10:00,61.5,47.9,30.13,WNW,289,0.0,1.0,61,0.00,,,0.00,Wunderground v.1.15,2013-06-09 02:10:00,
2013-06-08 19:11:00,61.5,47.9,30.13,WNW,289,1.0,1.0,61,0.00,,,0.00,Wunderground v.1.15,2013-06-09 02:11:00,
2013-06-08 19:13:00,61.5,48.4,30.13,SW,236,0.0,2.0,62,0.00,,,0.00,Wunderground v.1.15,2013-06-09 02:13:00,
2013-06-08 19:15:00,61.5,47.9,30.13,WSW,254,0.0,2.0,61,0.00,,,0.00,Wunderground v.1.15,2013-06-09 02:15:00,
2013-06-08 19:17:00,61.5,48.4,30.13,WSW,254,0.0,2.0,62,0.00,,,0.00,Wunderground v.1.15,2013-06-09 02:17:00,
2013-06-08 19:18:00,61.5,47.9,30.12,WSW,254,0.0,2.0,61,0.00,,,0.00,Wunderground v.1.15,2013-06-09 02:18:00,
2013-06-08 19:20:00,61.5,48.4,30.12,WSW,254,0.0,1.0,62,0.00,,,0.00,Wunderground v.1.15,2013-06-09 02:20:00,
2013-06-08 19:22:00,61.4,48.3,30.12,WSW,254,1.0,1.0,62,0.00,,,0.00,Wunderground v.1.15,2013-06-09 02:22:00,
2013-06-08 19:23:00,61.4,48.3,30.12,West,265,0.0,2.0,62,0.00,,,0.00,Wunderground v.1.15,2013-06-09 02:23:00,
2013-06-08 19:25:00,61.4,48.3,30.12,West,265,0.0,2.0,62,0.00,,,0.00,Wunderground v.1.15,2013-06-09 02:25:00,
2013-06-08 19:28:00,61.4,48.3,30.12,WSW,252,0.0,2.0,62,0.00,,,0.00,Wunderground v.1.15,2013-06-09 02:28:00,
2013-06-08 19:29:00,61.2,48.1,30.12,WSW,252,0.0,2.0,62,0.00,,,0.00,Wunderground v.1.15,2013-06-09 02:29:00,
2013-06-08 19:30:00,61.2,48.1,30.12,WSW,252,0.0,0.0,62,0.00,,,0.00,Wunderground v.1.15,2013-06-09 02:30:00,
2013-06-08 19:33:00,61.2,48.5,30.12,WSW,252,1.0,1.0,63,0.00,,,0.00,Wunderground v.1.15,2013-06-09 02:33:00,
2013-06-08 19:34:00,61.0,48.7,30.12,WSW,252,0.0,1.0,64,0.00,,,0.00,Wunderground v.1.15,2013-06-09 02:34:00,
2013-06-08 19:35:00,61.0,48.7,30.12,WSW,252,2.0,2.0,64,0.00,,,0.00,Wunderground v.1.15,2013-06-09 02:35:00,
2013-06-08 19:38:00,60.9,48.2,30.12,WSW,253,0.0,3.0,63,0.00,,,0.00,Wunderground v.1.15,2013-06-09 02:38:00,
2013-06-08 19:39:00,60.9,48.2,30.12,WSW,253,0.0,3.0,63,0.00,,,0.00,Wunderground v.1.15,2013-06-09 02:39:00,
2013-06-08 19:40:00,60.9,48.2,30.12,WSW,253,0.0,0.0,63,0.00,,,0.00,Wunderground v.1.15,2013-06-09 02:40:00,
2013-06-08 19:43:00,60.7,47.6,30.12,SW,228,0.0,3.0,62,0.00,,,0.00,Wunderground v.1.15,2013-06-09 02:43:00,
2013-06-08 19:44:00,60.7,48.0,30.12,SW,228,0.0,3.0,63,0.00,,,0.00,Wunderground v.1.15,2013-06-09 02:44:00,
2013-06-08 19:45:00,60.6,47.9,30.12,SW,235,2.0,3.0,63,0.00,,,0.00,Wunderground v.1.15,2013-06-09 02:45:00,
2013-06-08 19:48:00,60.4,47.3,30.12,WSW,253,0.0,3.0,62,0.00,,,0.00,Wunderground v.1.15,2013-06-09 02:48:00,
2013-06-08 19:49:00,60.3,47.6,30.12,WSW,253,0.0,1.0,63,0.00,,,0.00,Wunderground v.1.15,2013-06-09 02:49:00,
2013-06-08 19:50:00,60.3,47.6,30.12,WSW,253,0.0,1.0,63,0.00,,,0.00,Wunderground v.1.15,2013-06-09 02:50:00,
2013-06-08 19:53:00,60.3,47.6,30.12,WSW,253,0.0,1.0,63,0.00,,,0.00,Wunderground v.1.15,2013-06-09 02:53:00,
2013-06-08 19:55:00,60.1,47.5,30.12,WSW,253,1.0,1.0,63,0.00,,,0.00,Wunderground v.1.15,2013-06-09 02:55:00,
2013-06-08 19:56:00,60.1,47.9,30.12,WSW,253,0.0,1.0,64,0.00,,,0.00,Wunderground v.1.15,2013-06-09 02:56:00,
2013-06-08 19:57:00,60.0,47.4,30.12,WSW,253,1.0,1.0,63,0.00,,,0.00,Wunderground v.1.15,2013-06-09 02:57:00,
2013-06-08 19:58:00,60.0,47.4,30.12,WSW,253,0.0,1.0,63,0.00,,,0.00,Wunderground v.1.15,2013-06-09 02:58:00,
2013-06-08 19:59:00,60.0,47.4,30.12,WSW,253,0.0,1.0,63,0.00,,,0.00,Wunderground v.1.15,2013-06-09 02:59:00,
2013-06-08 20:00:00,59.8,47.2,30.12,WSW,253,0.0,0.0,63,0.00,,,0.00,Wunderground v.1.15,2013-06-09 03:00:00,
2013-06-08 20:01:00,59.8,47.2,30.12,WSW,253,0.0,0.0,63,0.00,,,0.00,Wunderground v.1.15,2013-06-09 03:01:00,
2013-06-08 20:03:00,59.8,47.2,30.12,WSW,253,0.0,0.0,63,0.00,,,0.00,Wunderground v.1.15,2013-06-09 03:03:00,
2013-06-08 20:04:00,59.7,47.1,30.12,WSW,253,0.0,0.0,63,0.00,,,0.00,Wunderground v.1.15,2013-06-09 03:04:00,
2013-06-08 20:06:00,59.7,47.5,30.12,WSW,256,0.0,2.0,64,0.00,,,0.00,Wunderground v.1.15,2013-06-09 03:06:00,
2013-06-08 20:07:00,59.5,46.9,30.12,WSW,256,1.0,2.0,63,0.00,,,0.00,Wunderground v.1.15,2013-06-09 03:07:00,
2013-06-08 20:08:00,59.5,46.9,30.12,WSW,256,0.0,2.0,63,0.00,,,0.00,Wunderground v.1.15,2013-06-09 03:08:00,
2013-06-08 20:10:00,59.5,46.9,30.12,WSW,256,0.0,0.0,63,0.00,,,0.00,Wunderground v.1.15,2013-06-09 03:10:00,
2013-06-08 20:11:00,59.4,46.8,30.12,WSW,255,2.0,2.0,63,0.00,,,0.00,Wunderground v.1.15,2013-06-09 03:11:00,
2013-06-08 20:12:00,59.4,46.8,30.12,WSW,255,0.0,2.0,63,0.00,,,0.00,Wunderground v.1.15,2013-06-09 03:12:00,
2013-06-08 20:13:00,59.4,46.8,30.12,WSW,255,0.0,2.0,63,0.00,,,0.00,Wunderground v.1.15,2013-06-09 03:13:00,
2013-06-08 20:15:00,59.2,47.0,30.12,WSW,255,0.0,2.0,64,0.00,,,0.00,Wunderground v.1.15,2013-06-09 03:15:00,
2013-06-08 20:16:00,59.2,47.0,30.12,WSW,255,0.0,2.0,64,0.00,,,0.00,Wunderground v.1.15,2013-06-09 03:16:00,
2013-06-08 20:18:00,59.2,47.0,30.12,WSW,252,0.0,2.0,64,0.00,,,0.00,Wunderground v.1.15,2013-06-09 03:18:00,
2013-06-08 20:19:00,59.1,46.9,30.12,WSW,252,1.0,2.0,64,0.00,,,0.00,Wunderground v.1.15,2013-06-09 03:19:00,
2013-06-08 20:20:00,59.1,46.9,30.12,WSW,252,0.0,0.0,64,0.00,,,0.00,Wunderground v.1.15,2013-06-09 03:20:00,
2013-06-08 20:21:00,59.1,46.9,30.12,WSW,252,0.0,0.0,64,0.00,,,0.00,Wunderground v.1.15,2013-06-09 03:21:00,
2013-06-08 20:23:00,58.9,47.2,30.12,WSW,252,0.0,0.0,65,0.00,,,0.00,Wunderground v.1.15,2013-06-09 03:23:00,
2013-06-08 20:24:00,58.9,47.2,30.12,WSW,252,0.0,1.0,65,0.00,,,0.00,Wunderground v.1.15,2013-06-09 03:24:00,
2013-06-08 20:26:00,58.9,47.2,30.12,WSW,252,0.0,1.0,65,0.00,,,0.00,Wunderground v.1.15,2013-06-09 03:26:00,
2013-06-08 20:27:00,58.8,47.1,30.12,WSW,252,0.0,1.0,65,0.00,,,0.00,Wunderground v.1.15,2013-06-09 03:27:00,
2013-06-08 20:29:00,58.8,47.5,30.12,WSW,252,0.0,1.0,66,0.00,,,0.00,Wunderground v.1.15,2013-06-09 03:29:00,
2013-06-08 20:30:00,58.8,47.5,30.12,WSW,252,0.0,0.0,66,0.00,,,0.00,Wunderground v.1.15,2013-06-09 03:30:00,
2013-06-08 20:31:00,58.8,47.1,30.12,WSW,252,0.0,0.0,65,0.00,,,0.00,Wunderground v.1.15,2013-06-09 03:31:00,
2013-06-08 20:32:00,58.8,47.1,30.12,WSW,252,0.0,0.0,65,0.00,,,0.00,Wunderground v.1.15,2013-06-09 03:32:00,
2013-06-08 20:34:00,58.6,47.3,30.12,WSW,252,0.0,0.0,66,0.00,,,0.00,Wunderground v.1.15,2013-06-09 03:34:00,
2013-06-08 20:35:00,58.6,47.3,30.12,WSW,252,0.0,0.0,66,0.00,,,0.00,Wunderground v.1.15,2013-06-09 03:35:00,
2013-06-08 20:38:00,58.6,47.3,30.12,WSW,252,0.0,1.0,66,0.00,,,0.00,Wunderground v.1.15,2013-06-09 03:38:00,
2013-06-08 20:40:00,58.6,46.9,30.12,WSW,252,0.0,0.0,65,0.00,,,0.00,Wunderground v.1.15,2013-06-09 03:40:00,
2013-06-08 20:41:00,58.5,47.2,30.12,WSW,238,2.0,2.0,66,0.00,,,0.00,Wunderground v.1.15,2013-06-09 03:41:00,
2013-06-08 20:44:00,58.5,47.2,30.12,SW,233,0.0,2.0,66,0.00,,,0.00,Wunderground v.1.15,2013-06-09 03:44:00,
2013-06-08 20:45:00,58.5,47.2,30.12,SW,233,0.0,2.0,66,0.00,,,0.00,Wunderground v.1.15,2013-06-09 03:45:00,
2013-06-08 20:46:00,58.3,47.0,30.12,SW,233,0.0,2.0,66,0.00,,,0.00,Wunderground v.1.15,2013-06-09 03:46:00,
2013-06-08 20:49:00,58.3,47.4,30.12,SW,233,0.0,3.0,67,0.00,,,0.00,Wunderground v.1.15,2013-06-09 03:49:00,
2013-06-08 20:51:00,58.3,47.4,30.12,SW,233,0.0,0.0,67,0.00,,,0.00,Wunderground v.1.15,2013-06-09 03:51:00,
2013-06-08 20:52:00,58.1,47.2,30.12,SW,233,0.0,1.0,67,0.00,,,0.00,Wunderground v.1.15,2013-06-09 03:52:00,
2013-06-08 20:56:00,58.0,47.1,30.12,SW,233,0.0,1.0,67,0.00,,,0.00,Wunderground v.1.15,2013-06-09 03:56:00,
2013-06-08 20:57:00,58.0,47.1,30.12,SW,233,0.0,1.0,67,0.00,,,0.00,Wunderground v.1.15,2013-06-09 03:57:00,
2013-06-08 20:58:00,58.0,47.5,30.12,SW,233,0.0,1.0,68,0.00,,,0.00,Wunderground v.1.15,2013-06-09 03:58:00,
2013-06-08 21:02:00,57.8,48.1,30.12,SW,233,0.0,0.0,70,0.00,,,0.00,Wunderground v.1.15,2013-06-09 04:02:00,
2013-06-08 21:04:00,57.7,47.2,30.12,SW,233,0.0,0.0,68,0.00,,,0.00,Wunderground v.1.15,2013-06-09 04:04:00,
2013-06-08 21:07:00,57.5,47.8,30.12,SW,233,0.0,1.0,70,0.00,,,0.00,Wunderground v.1.15,2013-06-09 04:07:00,
2013-06-08 21:08:00,57.5,47.8,30.12,SW,233,0.0,1.0,70,0.00,,,0.00,Wunderground v.1.15,2013-06-09 04:08:00,
2013-06-08 21:09:00,57.5,47.8,30.12,SW,233,0.0,1.0,70,0.00,,,0.00,Wunderground v.1.15,2013-06-09 04:09:00,
2013-06-08 21:12:00,57.2,47.5,30.12,SW,233,0.0,0.0,70,0.00,,,0.00,Wunderground v.1.15,2013-06-09 04:12:00,
2013-06-08 21:13:00,57.2,47.1,30.12,SW,233,0.0,0.0,69,0.00,,,0.00,Wunderground v.1.15,2013-06-09 04:13:00,
2013-06-08 21:14:00,57.2,47.5,30.12,SW,233,0.0,0.0,70,0.00,,,0.00,Wunderground v.1.15,2013-06-09 04:14:00,
2013-06-08 21:15:00,57.2,47.9,30.12,SW,233,0.0,0.0,71,0.00,,,0.00,Wunderground v.1.15,2013-06-09 04:15:00,
2013-06-08 21:18:00,57.1,48.2,30.12,SW,233,0.0,0.0,72,0.00,,,0.00,Wunderground v.1.15,2013-06-09 04:18:00,
2013-06-08 21:19:00,57.0,48.1,30.12,SW,233,0.0,0.0,72,0.00,,,0.00,Wunderground v.1.15,2013-06-09 04:19:00,
2013-06-08 21:21:00,57.0,47.7,30.12,SW,233,0.0,0.0,71,0.00,,,0.00,Wunderground v.1.15,2013-06-09 04:21:00,
2013-06-08 21:23:00,56.8,47.5,30.12,SW,233,0.0,0.0,71,0.00,,,0.00,Wunderground v.1.15,2013-06-09 04:23:00,
2013-06-08 21:24:00,56.8,47.5,30.12,SW,233,0.0,0.0,71,0.00,,,0.00,Wunderground v.1.15,2013-06-09 04:24:00,
2013-06-08 21:25:00,56.8,47.5,30.12,SW,233,0.0,0.0,71,0.00,,,0.00,Wunderground v.1.15,2013-06-09 04:25:00,
2013-06-08 21:26:00,56.8,47.9,30.12,SW,233,0.0,0.0,72,0.00,,,0.00,Wunderground v.1.15,2013-06-09 04:26:00,
2013-06-08 21:28:00,56.8,47.9,30.12,SW,233,0.0,0.0,72,0.00,,,0.00,Wunderground v.1.15,2013-06-09 04:28:00,
2013-06-08 21:29:00,56.7,47.8,30.12,SW,233,0.0,0.0,72,0.00,,,0.00,Wunderground v.1.15,2013-06-09 04:29:00,
2013-06-08 21:30:00,56.7,48.1,30.12,SW,233,0.0,0.0,73,0.00,,,0.00,Wunderground v.1.15,2013-06-09 04:30:00,
2013-06-08 21:31:00,56.7,48.1,30.12,SW,233,0.0,0.0,73,0.00,,,0.00,Wunderground v.1.15,2013-06-09 04:31:00,
2013-06-08 21:33:00,56.7,48.1,30.12,SW,233,0.0,0.0,73,0.00,,,0.00,Wunderground v.1.15,2013-06-09 04:33:00,
2013-06-08 21:35:00,56.7,47.8,30.12,SW,233,0.0,0.0,72,0.00,,,0.00,Wunderground v.1.15,2013-06-09 04:35:00,
2013-06-08 21:36:00,56.7,47.8,30.12,SW,233,0.0,0.0,72,0.00,,,0.00,Wunderground v.1.15,2013-06-09 04:36:00,
2013-06-08 21:38:00,56.7,47.8,30.12,SW,233,0.0,0.0,72,0.00,,,0.00,Wunderground v.1.15,2013-06-09 04:38:00,
2013-06-08 21:40:00,56.7,47.8,30.12,SW,233,0.0,0.0,72,0.00,,,0.00,Wunderground v.1.15,2013-06-09 04:40:00,
2013-06-08 21:41:00,56.5,47.6,30.12,SW,233,0.0,0.0,72,0.00,,,0.00,Wunderground v.1.15,2013-06-09 04:41:00,
2013-06-08 21:43:00,56.5,47.6,30.12,SW,233,0.0,0.0,72,0.00,,,0.00,Wunderground v.1.15,2013-06-09 04:43:00,
2013-06-08 21:44:00,56.5,47.6,30.12,SW,233,0.0,0.0,72,0.00,,,0.00,Wunderground v.1.15,2013-06-09 04:44:00,
2013-06-08 21:47:00,56.5,47.6,30.12,SW,233,0.0,0.0,72,0.00,,,0.00,Wunderground v.1.15,2013-06-09 04:47:00,
2013-06-08 21:48:00,56.4,47.5,30.12,SW,233,0.0,0.0,72,0.00,,,0.00,Wunderground v.1.15,2013-06-09 04:48:00,
2013-06-08 21:50:00,56.4,47.5,30.12,SW,233,0.0,0.0,72,0.00,,,0.00,Wunderground v.1.15,2013-06-09 04:50:00,
2013-06-08 21:52:00,56.2,47.3,30.12,SW,233,0.0,0.0,72,0.00,,,0.00,Wunderground v.1.15,2013-06-09 04:52:00,
2013-06-08 21:54:00,56.2,47.3,30.12,SW,233,0.0,0.0,72,0.00,,,0.00,Wunderground v.1.15,2013-06-09 04:54:00,
2013-06-08 21:57:00,56.1,47.6,30.12,SW,233,0.0,0.0,73,0.00,,,0.00,Wunderground v.1.15,2013-06-09 04:57:00,
2013-06-08 21:58:00,56.1,47.6,30.12,SW,233,0.0,0.0,73,0.00,,,0.00,Wunderground v.1.15,2013-06-09 04:58:00,
2013-06-08 22:00:00,55.9,47.4,30.12,SW,233,0.0,0.0,73,0.00,,,0.00,Wunderground v.1.15,2013-06-09 05:00:00,
2013-06-08 22:02:00,55.8,47.3,30.12,SW,233,0.0,0.0,73,0.00,,,0.00,Wunderground v.1.15,2013-06-09 05:02:00,
2013-06-08 22:04:00,55.6,47.4,30.12,SW,233,0.0,0.0,74,0.00,,,0.00,Wunderground v.1.15,2013-06-09 05:04:00,
2013-06-08 22:05:00,55.5,47.3,30.12,SW,233,0.0,0.0,74,0.00,,,0.00,Wunderground v.1.15,2013-06-09 05:05:00,
2013-06-08 22:07:00,55.3,47.2,30.12,SW,233,0.0,0.0,74,0.00,,,0.00,Wunderground v.1.15,2013-06-09 05:07:00,
2013-06-08 22:08:00,55.3,47.2,30.12,SW,233,0.0,0.0,74,0.00,,,0.00,Wunderground v.1.15,2013-06-09 05:08:00,
2013-06-08 22:10:00,55.0,46.9,30.12,SW,233,0.0,0.0,74,0.00,,,0.00,Wunderground v.1.15,2013-06-09 05:10:00,
2013-06-08 22:11:00,55.0,46.9,30.12,SW,233,0.0,0.0,74,0.00,,,0.00,Wunderground v.1.15,2013-06-09 05:11:00,
2013-06-08 22:12:00,54.9,47.1,30.12,SW,233,0.0,0.0,75,0.00,,,0.00,Wunderground v.1.15,2013-06-09 05:12:00,
2013-06-08 22:13:00,54.9,47.1,30.12,SW,233,0.0,0.0,75,0.00,,,0.00,Wunderground v.1.15,2013-06-09 05:13:00,
2013-06-08 22:14:00,54.7,46.9,30.12,SW,233,0.0,0.0,75,0.00,,,0.00,Wunderground v.1.15,2013-06-09 05:14:00,
2013-06-08 22:16:00,54.6,46.8,30.12,SW,233,0.0,0.0,75,0.00,,,0.00,Wunderground v.1.15,2013-06-09 05:16:00,
2013-06-08 22:18:00,54.6,46.8,30.12,SW,233,0.0,0.0,75,0.00,,,0.00,Wunderground v.1.15,2013-06-09 05:18:00,
2013-06-08 22:19:00,54.4,46.6,30.12,SW,233,0.0,0.0,75,0.00,,,0.00,Wunderground v.1.15,2013-06-09 05:19:00,
2013-06-08 22:21:00,54.4,46.6,30.12,SW,233,0.0,0.0,75,0.00,,,0.00,Wunderground v.1.15,2013-06-09 05:21:00,
2013-06-08 22:23:00,54.3,46.5,30.12,SW,233,0.0,0.0,75,0.00,,,0.00,Wunderground v.1.15,2013-06-09 05:23:00,
2013-06-08 22:24:00,54.3,46.5,30.12,SW,233,0.0,0.0,75,0.00,,,0.00,Wunderground v.1.15,2013-06-09 05:24:00,
2013-06-08 22:26:00,54.3,46.5,30.12,SW,233,0.0,0.0,75,0.00,,,0.00,Wunderground v.1.15,2013-06-09 05:26:00,
2013-06-08 22:29:00,54.1,46.7,30.12,SW,233,0.0,0.0,76,0.00,,,0.00,Wunderground v.1.15,2013-06-09 05:29:00,
2013-06-08 22:30:00,54.1,46.7,30.12,SW,233,0.0,0.0,76,0.00,,,0.00,Wunderground v.1.15,2013-06-09 05:30:00,
2013-06-08 22:31:00,54.0,46.6,30.12,SW,233,0.0,0.0,76,0.00,,,0.00,Wunderground v.1.15,2013-06-09 05:31:00,
2013-06-08 22:33:00,54.0,46.6,30.12,SW,233,0.0,0.0,76,0.00,,,0.00,Wunderground v.1.15,2013-06-09 05:33:00,
2013-06-08 22:34:00,53.8,46.4,30.12,SW,233,0.0,0.0,76,0.00,,,0.00,Wunderground v.1.15,2013-06-09 05:34:00,
2013-06-08 22:36:00,53.8,46.4,30.12,SW,233,0.0,0.0,76,0.00,,,0.00,Wunderground v.1.15,2013-06-09 05:36:00,
2013-06-08 22:38:00,53.7,46.3,30.12,SW,233,0.0,0.0,76,0.00,,,0.00,Wunderground v.1.15,2013-06-09 05:38:00,
2013-06-08 22:39:00,53.7,46.3,30.12,SW,233,0.0,0.0,76,0.00,,,0.00,Wunderground v.1.15,2013-06-09 05:39:00,
2013-06-08 22:41:00,53.6,46.2,30.12,SW,233,0.0,0.0,76,0.00,,,0.00,Wunderground v.1.15,2013-06-09 05:41:00,
2013-06-08 22:43:00,53.6,46.6,30.12,SW,233,0.0,0.0,77,0.00,,,0.00,Wunderground v.1.15,2013-06-09 05:43:00,
2013-06-08 22:44:00,53.4,46.7,30.12,SW,233,0.0,0.0,78,0.00,,,0.00,Wunderground v.1.15,2013-06-09 05:44:00,
2013-06-08 22:47:00,53.3,46.6,30.12,SW,233,0.0,0.0,78,0.00,,,0.00,Wunderground v.1.15,2013-06-09 05:47:00,
2013-06-08 22:48:00,53.3,47.0,30.12,SW,233,0.0,0.0,79,0.00,,,0.00,Wunderground v.1.15,2013-06-09 05:48:00,
2013-06-08 22:49:00,53.1,46.8,30.12,SW,233,0.0,0.0,79,0.00,,,0.00,Wunderground v.1.15,2013-06-09 05:49:00,
2013-06-08 22:50:00,53.1,46.8,30.12,SW,233,0.0,0.0,79,0.00,,,0.00,Wunderground v.1.15,2013-06-09 05:50:00,
2013-06-08 22:52:00,53.0,46.7,30.12,SW,233,0.0,0.0,79,0.00,,,0.00,Wunderground v.1.15,2013-06-09 05:52:00,
2013-06-08 22:54:00,53.0,46.7,30.12,SW,233,0.0,0.0,79,0.00,,,0.00,Wunderground v.1.15,2013-06-09 05:54:00,
2013-06-08 22:55:00,53.0,46.7,30.12,SW,233,0.0,0.0,79,0.00,,,0.00,Wunderground v.1.15,2013-06-09 05:55:00,
2013-06-08 22:58:00,52.8,46.5,30.12,SW,233,0.0,0.0,79,0.00,,,0.00,Wunderground v.1.15,2013-06-09 05:58:00,
2013-06-08 22:59:00,52.8,46.8,30.12,SW,233,0.0,0.0,80,0.00,,,0.00,Wunderground v.1.15,2013-06-09 05:59:00,
2013-06-08 23:00:00,52.8,46.8,30.12,SW,233,0.0,0.0,80,0.00,,,0.00,Wunderground v.1.15,2013-06-09 06:00:00,
2013-06-08 23:01:00,52.8,46.8,30.12,SW,233,0.0,0.0,80,0.00,,,0.00,Wunderground v.1.15,2013-06-09 06:01:00,
2013-06-08 23:03:00,52.7,46.7,30.12,SW,233,0.0,0.0,80,0.00,,,0.00,Wunderground v.1.15,2013-06-09 06:03:00,
2013-06-08 23:04:00,52.7,46.7,30.12,SW,233,0.0,0.0,80,0.00,,,0.00,Wunderground v.1.15,2013-06-09 06:04:00,
2013-06-08 23:05:00,52.7,46.7,30.12,SW,233,0.0,0.0,80,0.00,,,0.00,Wunderground v.1.15,2013-06-09 06:05:00,
2013-06-08 23:06:00,52.7,46.7,30.12,SW,233,0.0,0.0,80,0.00,,,0.00,Wunderground v.1.15,2013-06-09 06:06:00,
2013-06-08 23:09:00,52.7,47.0,30.12,SW,233,0.0,0.0,81,0.00,,,0.00,Wunderground v.1.15,2013-06-09 06:09:00,
2013-06-08 23:10:00,52.7,47.0,30.12,SW,233,0.0,0.0,81,0.00,,,0.00,Wunderground v.1.15,2013-06-09 06:10:00,
2013-06-08 23:11:00,52.5,46.8,30.12,SW,233,0.0,0.0,81,0.00,,,0.00,Wunderground v.1.15,2013-06-09 06:11:00,
2013-06-08 23:12:00,52.5,46.8,30.12,SW,233,0.0,0.0,81,0.00,,,0.00,Wunderground v.1.15,2013-06-09 06:12:00,
2013-06-08 23:14:00,52.5,46.8,30.12,SW,233,0.0,0.0,81,0.00,,,0.00,Wunderground v.1.15,2013-06-09 06:14:00,
2013-06-08 23:15:00,52.5,46.8,30.12,SW,233,0.0,0.0,81,0.00,,,0.00,Wunderground v.1.15,2013-06-09 06:15:00,
2013-06-08 23:16:00,52.4,46.7,30.12,SW,233,0.0,0.0,81,0.00,,,0.00,Wunderground v.1.15,2013-06-09 06:16:00,
2013-06-08 23:18:00,52.4,46.7,30.12,SW,233,0.0,0.0,81,0.00,,,0.00,Wunderground v.1.15,2013-06-09 06:18:00,
2013-06-08 23:20:00,52.4,47.1,30.12,SW,233,0.0,0.0,82,0.00,,,0.00,Wunderground v.1.15,2013-06-09 06:20:00,
2013-06-08 23:21:00,52.4,47.1,30.12,SW,233,0.0,0.0,82,0.00,,,0.00,Wunderground v.1.15,2013-06-09 06:21:00,
2013-06-08 23:22:00,52.4,47.1,30.12,SW,233,0.0,0.0,82,0.00,,,0.00,Wunderground v.1.15,2013-06-09 06:22:00,
2013-06-08 23:23:00,52.4,47.1,30.12,SW,233,0.0,0.0,82,0.00,,,0.00,Wunderground v.1.15,2013-06-09 06:23:00,
2013-06-08 23:26:00,52.2,46.9,30.12,SW,233,0.0,0.0,82,0.00,,,0.00,Wunderground v.1.15,2013-06-09 06:26:00,
2013-06-08 23:27:00,52.2,46.9,30.12,SW,233,0.0,0.0,82,0.00,,,0.00,Wunderground v.1.15,2013-06-09 06:27:00,
2013-06-08 23:28:00,52.2,46.9,30.12,SW,233,0.0,0.0,82,0.00,,,0.00,Wunderground v.1.15,2013-06-09 06:28:00,
2013-06-08 23:29:00,52.2,46.9,30.12,SW,233,0.0,0.0,82,0.00,,,0.00,Wunderground v.1.15,2013-06-09 06:29:00,
2013-06-08 23:31:00,52.2,46.9,30.12,SW,233,0.0,0.0,82,0.00,,,0.00,Wunderground v.1.15,2013-06-09 06:31:00,
2013-06-08 23:32:00,52.2,46.9,30.12,SW,233,0.0,0.0,82,0.00,,,0.00,Wunderground v.1.15,2013-06-09 06:32:00,
2013-06-08 23:33:00,52.2,46.9,30.12,SW,233,0.0,0.0,82,0.00,,,0.00,Wunderground v.1.15,2013-06-09 06:33:00,
2013-06-08 23:34:00,52.2,46.9,30.12,SW,233,0.0,0.0,82,0.00,,,0.00,Wunderground v.1.15,2013-06-09 06:34:00,
2013-06-08 23:38:00,52.1,46.8,30.12,SW,233,0.0,0.0,82,0.00,,,0.00,Wunderground v.1.15,2013-06-09 06:38:00,
2013-06-08 23:39:00,52.1,46.8,30.12,SW,233,0.0,0.0,82,0.00,,,0.00,Wunderground v.1.15,2013-06-09 06:39:00,
2013-06-08 23:40:00,52.1,46.8,30.12,SW,233,0.0,0.0,82,0.00,,,0.00,Wunderground v.1.15,2013-06-09 06:40:00,
2013-06-08 23:43:00,52.1,46.8,30.12,SW,233,0.0,0.0,82,0.00,,,0.00,Wunderground v.1.15,2013-06-09 06:43:00,
2013-06-08 23:45:00,52.1,46.8,30.12,SW,233,0.0,0.0,82,0.00,,,0.00,Wunderground v.1.15,2013-06-09 06:45:00,
2013-06-08 23:47:00,52.1,47.1,30.12,SW,233,0.0,0.0,83,0.00,,,0.00,Wunderground v.1.15,2013-06-09 06:47:00,
2013-06-08 23:49:00,52.1,47.1,30.12,SW,233,0.0,0.0,83,0.00,,,0.00,Wunderground v.1.15,2013-06-09 06:49:00,
2013-06-08 23:51:00,52.1,47.1,30.12,SW,233,0.0,0.0,83,0.00,,,0.00,Wunderground v.1.15,2013-06-09 06:51:00,
2013-06-08 23:52:00,52.1,47.1,30.12,SW,233,0.0,0.0,83,0.00,,,0.00,Wunderground v.1.15,2013-06-09 06:52:00,
2013-06-08 23:54:00,52.1,47.1,30.12,SW,233,0.0,0.0,83,0.00,,,0.00,Wunderground v.1.15,2013-06-09 06:54:00,
2013-06-08 23:55:00,52.1,47.1,30.12,SW,233,0.0,0.0,83,0.00,,,0.00,Wunderground v.1.15,2013-06-09 06:55:00,
2013-06-08 23:56:00,52.1,47.1,30.12,SW,233,0.0,0.0,83,0.00,,,0.00,Wunderground v.1.15,2013-06-09 06:56:00,
2013-06-08 23:57:00,52.1,47.1,30.12,SW,233,0.0,0.0,83,0.00,,,0.00,Wunderground v.1.15,2013-06-09 06:57:00,